Wetterdaten: Montag, 02.01.2012
Datum Zeit Temp. Innen Temp. Aussen UV X Diff Temp. Feuchte Inne Feuchte Auss Sonnenschein Luftdruck Regen ab 0,1 Wind Sonnenschein T Regendauer Windben
02.01.2012 00:00 16,9 C 14,4 C 0,0 UV-I 0,0 C 65 % 80 % 0 % 1003,7 hPa 0,0 l/m 14,9 km/h (3 Bft) 0 min 0 min 32,9 km/h (5 Bft)
02.01.2012 00:02 16,9 C 14,4 C 0,0 UV-I 0,0 C 65 % 80 % 0 % 1003,7 hPa 0,0 l/m 15,3 km/h (3 Bft) 0 min 0 min 25,7 km/h (4 Bft)
02.01.2012 00:04 16,9 C 14,4 C 0,0 UV-I 0,0 C 65 % 80 % 0 % 1003,2 hPa 0,0 l/m 15,3 km/h (3 Bft) 0 min 0 min 20,1 km/h (4 Bft)
02.01.2012 00:06 16,9 C 14,5 C 0,0 UV-I 0,0 C 65 % 81 % 0 % 1003,2 hPa 0,0 l/m 14,9 km/h (3 Bft) 0 min 0 min 25,7 km/h (4 Bft)
02.01.2012 00:08 16,9 C 14,4 C 0,0 UV-I 0,0 C 65 % 81 % 0 % 1003,2 hPa 0,0 l/m 15,3 km/h (3 Bft) 0 min 0 min 25,7 km/h (4 Bft)
02.01.2012 00:10 16,9 C 14,4 C 0,0 UV-I 0,0 C 65 % 81 % 0 % 1003,2 hPa 0,0 l/m 15,3 km/h (3 Bft) 0 min 0 min 11,2 km/h (2 Bft)
02.01.2012 00:12 16,9 C 14,4 C 0,0 UV-I 0,0 C 65 % 81 % 0 % 1003,2 hPa 0,0 l/m 15,3 km/h (3 Bft) 0 min 0 min 18,1 km/h (3 Bft)
02.01.2012 00:14 16,9 C 14,3 C 0,0 UV-I 0,0 C 65 % 81 % 0 % 1003,2 hPa 0,0 l/m 14,5 km/h (3 Bft) 0 min 0 min 18,1 km/h (3 Bft)
02.01.2012 00:16 16,9 C 14,4 C 0,0 UV-I 0,0 C 65 % 81 % 0 % 1003,2 hPa 0,0 l/m 13,7 km/h (3 Bft) 0 min 0 min 20,5 km/h (4 Bft)
02.01.2012 00:18 16,9 C 14,3 C 0,0 UV-I 0,0 C 65 % 81 % 0 % 1003,2 hPa 0,0 l/m 14,5 km/h (3 Bft) 0 min 0 min 21,3 km/h (4 Bft)
02.01.2012 00:20 16,9 C 14,3 C 0,0 UV-I 0,0 C 65 % 81 % 0 % 1003,2 hPa 0,0 l/m 14,1 km/h (3 Bft) 0 min 0 min 21,3 km/h (4 Bft)
02.01.2012 00:22 16,9 C 14,3 C 0,0 UV-I 0,0 C 65 % 81 % 0 % 1003,2 hPa 0,0 l/m 14,5 km/h (3 Bft) 0 min 0 min 51,0 km/h (7 Bft)
02.01.2012 00:24 16,9 C 14,3 C 0,0 UV-I 0,0 C 65 % 81 % 0 % 1003,2 hPa 0,0 l/m 15,3 km/h (3 Bft) 0 min 0 min 24,9 km/h (4 Bft)
02.01.2012 00:26 16,9 C 14,3 C 0,0 UV-I 0,0 C 65 % 81 % 0 % 1003,2 hPa 0,0 l/m 16,9 km/h (3 Bft) 0 min 0 min 55,8 km/h (7 Bft)
02.01.2012 00:28 16,9 C 14,3 C 0,0 UV-I 0,0 C 65 % 81 % 0 % 1003,2 hPa 0,0 l/m 16,9 km/h (3 Bft) 0 min 0 min 55,8 km/h (7 Bft)
02.01.2012 00:30 16,9 C 14,3 C 0,0 UV-I 0,0 C 65 % 81 % 0 % 1003,2 hPa 0,0 l/m 16,1 km/h (3 Bft) 0 min 0 min 13,3 km/h (3 Bft)
02.01.2012 00:32 16,9 C 14,2 C 0,0 UV-I 0,0 C 65 % 81 % 0 % 1003,2 hPa 0,0 l/m 16,5 km/h (3 Bft) 0 min 0 min 55,8 km/h (7 Bft)
02.01.2012 00:34 16,9 C 14,3 C 0,0 UV-I 0,0 C 65 % 81 % 0 % 1003,2 hPa 0,0 l/m 15,7 km/h (3 Bft) 0 min 0 min 23,7 km/h (4 Bft)
02.01.2012 00:36 16,9 C 14,2 C 0,0 UV-I 0,0 C 65 % 81 % 0 % 1003,2 hPa 0,0 l/m 15,3 km/h (3 Bft) 0 min 0 min 19,7 km/h (3 Bft)
02.01.2012 00:38 16,9 C 14,2 C 0,0 UV-I 0,0 C 65 % 81 % 0 % 1003,2 hPa 0,0 l/m 15,3 km/h (3 Bft) 0 min 0 min 33,7 km/h (5 Bft)
02.01.2012 00:40 16,9 C 14,2 C 0,0 UV-I 0,0 C 65 % 81 % 0 % 1003,2 hPa 0,0 l/m 16,1 km/h (3 Bft) 0 min 0 min 33,7 km/h (5 Bft)
02.01.2012 00:42 16,9 C 14,3 C 0,0 UV-I 0,0 C 65 % 81 % 0 % 1003,2 hPa 0,0 l/m 15,7 km/h (3 Bft) 0 min 0 min 26,9 km/h (4 Bft)
02.01.2012 00:44 16,9 C 14,3 C 0,0 UV-I 0,0 C 65 % 82 % 0 % 1003,4 hPa 0,0 l/m 16,5 km/h (3 Bft) 0 min 0 min 23,3 km/h (4 Bft)
02.01.2012 00:46 17,0 C 14,3 C 0,0 UV-I 0,0 C 65 % 82 % 0 % 1003,4 hPa 0,0 l/m 16,5 km/h (3 Bft) 0 min 2 min 23,3 km/h (4 Bft)
02.01.2012 00:48 16,9 C 14,1 C 0,0 UV-I 0,0 C 65 % 82 % 0 % 1003,4 hPa 0,0 l/m 16,5 km/h (3 Bft) 0 min 2 min 21,7 km/h (4 Bft)
02.01.2012 00:50 16,9 C 14,1 C 0,0 UV-I 0,0 C 65 % 82 % 0 % 1003,4 hPa 0,0 l/m 16,1 km/h (3 Bft) 0 min 2 min 26,5 km/h (4 Bft)
02.01.2012 00:52 16,9 C 14,0 C 0,0 UV-I 0,0 C 65 % 83 % 0 % 1003,4 hPa 0,0 l/m 15,7 km/h (3 Bft) 0 min 2 min 26,5 km/h (4 Bft)
02.01.2012 00:54 16,9 C 14,1 C 0,0 UV-I 0,0 C 65 % 83 % 0 % 1003,4 hPa 0,0 l/m 16,5 km/h (3 Bft) 0 min 2 min 18,9 km/h (3 Bft)
02.01.2012 00:56 16,9 C 14,0 C 0,0 UV-I 0,0 C 65 % 83 % 0 % 1003,4 hPa 0,0 l/m 15,7 km/h (3 Bft) 0 min 2 min 20,1 km/h (4 Bft)
02.01.2012 00:58 16,9 C 13,9 C 0,0 UV-I 0,0 C 65 % 83 % 0 % 1003,4 hPa 0,0 l/m 15,3 km/h (3 Bft) 0 min 2 min 20,1 km/h (4 Bft)
02.01.2012 01:00 16,9 C 13,9 C 0,0 UV-I 0,0 C 65 % 84 % 0 % 1003,4 hPa 0,0 l/m 15,3 km/h (3 Bft) 0 min 2 min 13,7 km/h (3 Bft)
02.01.2012 01:02 16,9 C 13,8 C 0,0 UV-I 0,0 C 65 % 84 % 0 % 1003,4 hPa 0,0 l/m 14,1 km/h (3 Bft) 0 min 2 min 31,7 km/h (5 Bft)
02.01.2012 01:04 17,0 C 13,7 C 0,0 UV-I 0,0 C 65 % 84 % 0 % 1003,4 hPa 0,1 l/m 13,3 km/h (3 Bft) 0 min 2 min 31,7 km/h (5 Bft)
02.01.2012 01:06 16,9 C 13,7 C 0,0 UV-I 0,0 C 65 % 85 % 0 % 1003,4 hPa 0,1 l/m 12,8 km/h (3 Bft) 0 min 2 min 19,7 km/h (3 Bft)
02.01.2012 01:08 16,9 C 13,5 C 0,0 UV-I 0,0 C 65 % 85 % 0 % 1003,4 hPa 0,0 l/m 13,3 km/h (3 Bft) 0 min 0 min 20,5 km/h (4 Bft)
02.01.2012 01:10 16,9 C 13,5 C 0,0 UV-I 0,0 C 65 % 86 % 0 % 1003,4 hPa 0,2 l/m 12,8 km/h (3 Bft) 0 min 0 min 20,5 km/h (4 Bft)
02.01.2012 01:12 16,9 C 13,4 C 0,0 UV-I 0,0 C 66 % 86 % 0 % 1003,4 hPa 0,2 l/m 14,1 km/h (3 Bft) 0 min 0 min 13,3 km/h (3 Bft)
02.01.2012 01:14 17,0 C 13,3 C 0,0 UV-I 0,0 C 66 % 86 % 0 % 1003,4 hPa 0,0 l/m 14,5 km/h (3 Bft) 0 min 0 min 14,5 km/h (3 Bft)
02.01.2012 01:16 17,0 C 13,2 C 0,0 UV-I 0,0 C 66 % 87 % 0 % 1003,4 hPa 0,7 l/m 14,9 km/h (3 Bft) 0 min 0 min 23,7 km/h (4 Bft)
02.01.2012 01:18 17,0 C 13,1 C 0,0 UV-I 0,0 C 66 % 87 % 0 % 1003,4 hPa 0,2 l/m 14,5 km/h (3 Bft) 0 min 0 min 23,7 km/h (4 Bft)
02.01.2012 01:20 16,9 C 12,8 C 0,0 UV-I 0,0 C 66 % 86 % 0 % 1003,4 hPa 0,0 l/m 14,5 km/h (3 Bft) 0 min 0 min 18,9 km/h (3 Bft)
02.01.2012 01:22 16,9 C 12,5 C 0,0 UV-I 0,0 C 66 % 85 % 0 % 1003,4 hPa 0,0 l/m 14,5 km/h (3 Bft) 0 min 0 min 17,7 km/h (3 Bft)
02.01.2012 01:24 16,9 C 12,4 C 0,0 UV-I 0,0 C 66 % 85 % 0 % 1004,6 hPa 0,0 l/m 15,3 km/h (3 Bft) 0 min 0 min 34,5 km/h (5 Bft)
02.01.2012 01:26 16,9 C 12,0 C 0,0 UV-I 0,0 C 66 % 85 % 0 % 1004,6 hPa 0,0 l/m 15,7 km/h (3 Bft) 0 min 0 min 34,5 km/h (5 Bft)
02.01.2012 01:28 16,9 C 11,9 C 0,0 UV-I 0,0 C 66 % 86 % 0 % 1004,6 hPa 0,1 l/m 16,1 km/h (3 Bft) 0 min 0 min 18,5 km/h (3 Bft)
02.01.2012 01:30 16,9 C 11,8 C 0,0 UV-I 0,0 C 66 % 86 % 0 % 1004,6 hPa 0,0 l/m 17,3 km/h (3 Bft) 0 min 0 min 25,7 km/h (4 Bft)
02.01.2012 01:32 16,9 C 11,6 C 0,0 UV-I 0,0 C 66 % 86 % 0 % 1004,6 hPa 0,0 l/m 16,1 km/h (3 Bft) 0 min 0 min 25,7 km/h (4 Bft)
02.01.2012 01:34 16,9 C 11,6 C 0,0 UV-I 0,0 C 65 % 87 % 0 % 1004,6 hPa 0,0 l/m 14,5 km/h (3 Bft) 0 min 0 min 13,3 km/h (3 Bft)
02.01.2012 01:36 16,9 C 11,5 C 0,0 UV-I 0,0 C 66 % 87 % 0 % 1004,6 hPa 0,0 l/m 12,0 km/h (2 Bft) 0 min 0 min 14,9 km/h (3 Bft)
02.01.2012 01:38 16,9 C 11,5 C 0,0 UV-I 0,0 C 65 % 87 % 0 % 1004,6 hPa 0,0 l/m 10,8 km/h (2 Bft) 0 min 0 min 14,9 km/h (3 Bft)
02.01.2012 01:40 16,9 C 11,3 C 0,0 UV-I 0,0 C 65 % 87 % 0 % 1004,6 hPa 0,1 l/m 8,8 km/h (2 Bft) 0 min 0 min 9,6 km/h (2 Bft)
02.01.2012 01:42 16,8 C 11,2 C 0,0 UV-I 0,0 C 65 % 87 % 0 % 1004,6 hPa 0,0 l/m 7,6 km/h (2 Bft) 0 min 0 min 10,8 km/h (2 Bft)
02.01.2012 01:44 16,9 C 11,3 C 0,0 UV-I 0,0 C 65 % 87 % 0 % 1004,9 hPa 0,0 l/m 8,0 km/h (2 Bft) 0 min 0 min 10,8 km/h (2 Bft)
02.01.2012 01:46 16,8 C 11,2 C 0,0 UV-I 0,0 C 65 % 88 % 0 % 1004,9 hPa 0,0 l/m 8,4 km/h (2 Bft) 0 min 0 min 10,8 km/h (2 Bft)
02.01.2012 01:48 16,8 C 11,1 C 0,0 UV-I 0,0 C 65 % 88 % 0 % 1004,9 hPa 0,0 l/m 7,6 km/h (2 Bft) 0 min 0 min 10,8 km/h (2 Bft)
02.01.2012 01:50 16,8 C 11,1 C 0,0 UV-I 0,0 C 65 % 88 % 0 % 1004,9 hPa 0,0 l/m 6,8 km/h (2 Bft) 0 min 0 min 6,4 km/h (2 Bft)
02.01.2012 01:52 16,8 C 11,1 C 0,0 UV-I 0,0 C 65 % 88 % 0 % 1004,9 hPa 0,1 l/m 6,4 km/h (2 Bft) 0 min 0 min 6,4 km/h (2 Bft)
02.01.2012 01:54 16,8 C 11,0 C 0,0 UV-I 0,0 C 65 % 88 % 0 % 1004,9 hPa 0,0 l/m 5,6 km/h (1 Bft) 0 min 0 min 6,4 km/h (2 Bft)
02.01.2012 01:56 16,8 C 10,9 C 0,0 UV-I 0,0 C 65 % 89 % 0 % 1004,9 hPa 0,0 l/m 5,2 km/h (1 Bft) 0 min 0 min 10,8 km/h (2 Bft)
02.01.2012 01:58 16,8 C 10,9 C 0,0 UV-I 0,0 C 65 % 89 % 0 % 1004,9 hPa 0,1 l/m 5,6 km/h (1 Bft) 0 min 0 min 10,8 km/h (2 Bft)
02.01.2012 02:00 16,8 C 10,9 C 0,0 UV-I 0,0 C 65 % 89 % 0 % 1004,9 hPa 0,0 l/m 6,4 km/h (2 Bft) 0 min 0 min 10,8 km/h (2 Bft)
02.01.2012 02:02 16,8 C 10,8 C 0,0 UV-I 0,0 C 65 % 89 % 0 % 1004,9 hPa 0,0 l/m 7,2 km/h (2 Bft) 0 min 0 min 16,5 km/h (3 Bft)
02.01.2012 02:04 16,8 C 10,9 C 0,0 UV-I 0,0 C 65 % 89 % 0 % 1005,1 hPa 0,0 l/m 8,4 km/h (2 Bft) 0 min 0 min 16,5 km/h (3 Bft)
02.01.2012 02:06 16,8 C 10,8 C 0,0 UV-I 0,0 C 65 % 89 % 0 % 1005,1 hPa 0,0 l/m 9,6 km/h (2 Bft) 0 min 0 min 9,2 km/h (2 Bft)
02.01.2012 02:08 16,8 C 10,8 C 0,0 UV-I 0,0 C 65 % 89 % 0 % 1005,1 hPa 0,0 l/m 9,6 km/h (2 Bft) 0 min 0 min 5,6 km/h (1 Bft)
02.01.2012 02:10 16,8 C 10,8 C 0,0 UV-I 0,0 C 65 % 89 % 0 % 1005,1 hPa 0,1 l/m 8,8 km/h (2 Bft) 0 min 0 min 15,3 km/h (3 Bft)
02.01.2012 02:12 16,8 C 10,7 C 0,0 UV-I 0,0 C 65 % 89 % 0 % 1005,1 hPa 0,0 l/m 8,0 km/h (2 Bft) 0 min 0 min 18,9 km/h (3 Bft)
02.01.2012 02:14 16,7 C 10,7 C 0,0 UV-I 0,0 C 65 % 89 % 0 % 1005,1 hPa 0,0 l/m 6,8 km/h (2 Bft) 0 min 0 min 18,9 km/h (3 Bft)
02.01.2012 02:16 16,7 C 10,7 C 0,0 UV-I 0,0 C 65 % 89 % 0 % 1005,1 hPa 0,0 l/m 6,0 km/h (2 Bft) 0 min 0 min 18,9 km/h (3 Bft)
02.01.2012 02:18 16,7 C 10,6 C 0,0 UV-I 0,0 C 65 % 90 % 0 % 1005,1 hPa 0,0 l/m 6,0 km/h (2 Bft) 0 min 0 min 18,9 km/h (3 Bft)
02.01.2012 02:20 16,7 C 10,7 C 0,0 UV-I 0,0 C 65 % 90 % 0 % 1005,1 hPa 0,1 l/m 6,4 km/h (2 Bft) 0 min 0 min 12,4 km/h (3 Bft)
02.01.2012 02:22 16,7 C 10,7 C 0,0 UV-I 0,0 C 65 % 90 % 0 % 1005,1 hPa 0,0 l/m 6,4 km/h (2 Bft) 0 min 0 min 16,5 km/h (3 Bft)
02.01.2012 02:24 16,7 C 10,6 C 0,0 UV-I 0,0 C 65 % 90 % 0 % 1004,9 hPa 0,0 l/m 7,6 km/h (2 Bft) 0 min 0 min 16,5 km/h (3 Bft)
02.01.2012 02:26 16,6 C 10,5 C 0,0 UV-I 0,0 C 65 % 90 % 0 % 1004,9 hPa 0,0 l/m 7,6 km/h (2 Bft) 0 min 0 min 12,0 km/h (2 Bft)
02.01.2012 02:28 16,6 C 10,5 C 0,0 UV-I 0,0 C 65 % 90 % 0 % 1004,9 hPa 0,0 l/m 8,4 km/h (2 Bft) 0 min 0 min 18,1 km/h (3 Bft)
02.01.2012 02:30 16,7 C 10,5 C 0,0 UV-I 0,0 C 65 % 90 % 0 % 1004,9 hPa 0,0 l/m 8,0 km/h (2 Bft) 0 min 0 min 18,1 km/h (3 Bft)
02.01.2012 02:32 16,6 C 10,5 C 0,0 UV-I 0,0 C 65 % 90 % 0 % 1004,9 hPa 0,0 l/m 8,0 km/h (2 Bft) 0 min 0 min 12,0 km/h (2 Bft)
02.01.2012 02:34 16,6 C 10,5 C 0,0 UV-I 0,0 C 65 % 90 % 0 % 1004,9 hPa 0,1 l/m 7,6 km/h (2 Bft) 0 min 0 min 12,0 km/h (2 Bft)
02.01.2012 02:36 16,6 C 10,5 C 0,0 UV-I 0,0 C 65 % 90 % 0 % 1004,9 hPa 0,0 l/m 6,4 km/h (2 Bft) 0 min 0 min 5,6 km/h (1 Bft)
02.01.2012 02:38 16,6 C 10,4 C 0,0 UV-I 0,0 C 65 % 90 % 0 % 1004,9 hPa 0,0 l/m 5,6 km/h (1 Bft) 0 min 0 min 5,6 km/h (1 Bft)
02.01.2012 02:40 16,6 C 10,4 C 0,0 UV-I 0,0 C 65 % 91 % 0 % 1004,9 hPa 0,0 l/m 5,6 km/h (1 Bft) 0 min 0 min 10,0 km/h (2 Bft)
02.01.2012 02:42 16,6 C 10,5 C 0,0 UV-I 0,0 C 65 % 91 % 0 % 1004,9 hPa 0,0 l/m 4,8 km/h (1 Bft) 0 min 0 min 10,0 km/h (2 Bft)
02.01.2012 02:44 16,6 C 10,4 C 0,0 UV-I 0,0 C 65 % 90 % 0 % 1005,4 hPa 0,0 l/m 5,2 km/h (1 Bft) 0 min 0 min 16,5 km/h (3 Bft)
02.01.2012 02:46 16,6 C 10,5 C 0,0 UV-I 0,0 C 65 % 91 % 0 % 1005,4 hPa 0,0 l/m 6,0 km/h (2 Bft) 0 min 0 min 16,5 km/h (3 Bft)
02.01.2012 02:48 16,6 C 10,4 C 0,0 UV-I 0,0 C 65 % 91 % 0 % 1005,4 hPa 0,0 l/m 6,4 km/h (2 Bft) 0 min 0 min 7,2 km/h (2 Bft)
02.01.2012 02:50 16,6 C 10,4 C 0,0 UV-I 0,0 C 65 % 91 % 0 % 1005,4 hPa 0,1 l/m 7,2 km/h (2 Bft) 0 min 0 min 11,6 km/h (2 Bft)
02.01.2012 02:52 16,6 C 10,4 C 0,0 UV-I 0,0 C 65 % 91 % 0 % 1005,4 hPa 0,0 l/m 7,6 km/h (2 Bft) 0 min 0 min 11,6 km/h (2 Bft)
02.01.2012 02:54 16,6 C 10,4 C 0,0 UV-I 0,0 C 65 % 91 % 0 % 1005,4 hPa 0,0 l/m 7,2 km/h (2 Bft) 0 min 0 min 8,0 km/h (2 Bft)
02.01.2012 02:56 16,6 C 10,3 C 0,0 UV-I 0,0 C 65 % 91 % 0 % 1005,4 hPa 0,0 l/m 6,8 km/h (2 Bft) 0 min 0 min 8,0 km/h (2 Bft)
02.01.2012 02:58 16,6 C 10,3 C 0,0 UV-I 0,0 C 65 % 91 % 0 % 1005,4 hPa 0,0 l/m 6,8 km/h (2 Bft) 0 min 0 min 11,2 km/h (2 Bft)
02.01.2012 03:00 16,6 C 10,3 C 0,0 UV-I 0,0 C 65 % 91 % 0 % 1005,4 hPa 0,0 l/m 6,0 km/h (2 Bft) 0 min 0 min 11,2 km/h (2 Bft)
02.01.2012 03:02 16,6 C 10,3 C 0,0 UV-I 0,0 C 65 % 91 % 0 % 1005,4 hPa 0,0 l/m 6,0 km/h (2 Bft) 0 min 0 min 10,8 km/h (2 Bft)
02.01.2012 03:04 16,5 C 10,3 C 0,0 UV-I 0,0 C 65 % 91 % 0 % 1005,3 hPa 0,0 l/m 5,6 km/h (1 Bft) 0 min 0 min 10,8 km/h (2 Bft)
02.01.2012 03:06 16,5 C 10,3 C 0,0 UV-I 0,0 C 65 % 91 % 0 % 1005,3 hPa 0,0 l/m 4,8 km/h (1 Bft) 0 min 0 min 6,8 km/h (2 Bft)
02.01.2012 03:08 16,5 C 10,3 C 0,0 UV-I 0,0 C 65 % 91 % 0 % 1005,3 hPa 0,0 l/m 4,8 km/h (1 Bft) 0 min 0 min 12,0 km/h (2 Bft)
02.01.2012 03:10 16,5 C 10,2 C 0,0 UV-I 0,0 C 65 % 91 % 0 % 1005,3 hPa 0,0 l/m 3,6 km/h (1 Bft) 0 min 0 min 12,0 km/h (2 Bft)
02.01.2012 03:12 16,5 C 10,2 C 0,0 UV-I 0,0 C 65 % 91 % 0 % 1005,3 hPa 0,0 l/m 3,6 km/h (1 Bft) 0 min 0 min 8,8 km/h (2 Bft)
02.01.2012 03:14 16,5 C 10,2 C 0,0 UV-I 0,0 C 65 % 91 % 0 % 1005,3 hPa 0,0 l/m 3,2 km/h (1 Bft) 0 min 0 min 8,8 km/h (2 Bft)
02.01.2012 03:16 16,5 C 10,2 C 0,0 UV-I 0,0 C 65 % 91 % 0 % 1005,3 hPa 0,0 l/m 3,6 km/h (1 Bft) 0 min 0 min 6,4 km/h (2 Bft)
02.01.2012 03:18 16,5 C 10,3 C 0,0 UV-I 0,0 C 65 % 91 % 0 % 1005,3 hPa 0,0 l/m 4,4 km/h (1 Bft) 0 min 0 min 16,1 km/h (3 Bft)
02.01.2012 03:20 16,5 C 10,3 C 0,0 UV-I 0,0 C 65 % 91 % 0 % 1005,3 hPa 0,0 l/m 5,2 km/h (1 Bft) 0 min 0 min 16,1 km/h (3 Bft)
02.01.2012 03:22 16,5 C 10,3 C 0,0 UV-I 0,0 C 65 % 91 % 0 % 1005,3 hPa 0,0 l/m 6,0 km/h (2 Bft) 0 min 0 min 14,9 km/h (3 Bft)
02.01.2012 03:24 16,5 C 10,3 C 0,0 UV-I 0,0 C 65 % 91 % 0 % 1005,3 hPa 0,0 l/m 6,0 km/h (2 Bft) 0 min 0 min 8,8 km/h (2 Bft)
02.01.2012 03:26 16,5 C 10,3 C 0,0 UV-I 0,0 C 65 % 91 % 0 % 1005,3 hPa 0,0 l/m 6,8 km/h (2 Bft) 0 min 0 min 8,8 km/h (2 Bft)
02.01.2012 03:28 16,5 C 10,3 C 0,0 UV-I 0,0 C 65 % 91 % 0 % 1005,3 hPa 0,0 l/m 6,0 km/h (2 Bft) 0 min 0 min 8,8 km/h (2 Bft)
02.01.2012 03:30 16,5 C 10,3 C 0,0 UV-I 0,0 C 65 % 91 % 0 % 1005,3 hPa 0,1 l/m 6,4 km/h (2 Bft) 0 min 0 min 11,6 km/h (2 Bft)
02.01.2012 03:32 16,5 C 10,3 C 0,0 UV-I 0,0 C 65 % 91 % 0 % 1005,3 hPa 0,0 l/m 5,6 km/h (1 Bft) 0 min 0 min 11,6 km/h (2 Bft)
02.01.2012 03:34 16,5 C 10,3 C 0,0 UV-I 0,0 C 65 % 91 % 0 % 1005,3 hPa 0,0 l/m 5,6 km/h (1 Bft) 0 min 0 min 12,8 km/h (3 Bft)
02.01.2012 03:36 16,5 C 10,2 C 0,0 UV-I 0,0 C 65 % 91 % 0 % 1005,3 hPa 0,0 l/m 6,0 km/h (2 Bft) 0 min 0 min 12,8 km/h (3 Bft)
02.01.2012 03:38 16,5 C 10,3 C 0,0 UV-I 0,0 C 65 % 91 % 0 % 1005,3 hPa 0,0 l/m 5,6 km/h (1 Bft) 0 min 0 min 10,4 km/h (2 Bft)
02.01.2012 03:40 16,5 C 10,3 C 0,0 UV-I 0,0 C 65 % 91 % 0 % 1005,3 hPa 0,0 l/m 6,0 km/h (2 Bft) 0 min 0 min 8,0 km/h (2 Bft)
02.01.2012 03:42 16,5 C 10,3 C 0,0 UV-I 0,0 C 65 % 91 % 0 % 1005,3 hPa 0,0 l/m 5,2 km/h (1 Bft) 0 min 0 min 8,0 km/h (2 Bft)
02.01.2012 03:44 16,5 C 10,2 C 0,0 UV-I 0,0 C 65 % 91 % 0 % 1005,2 hPa 0,0 l/m 4,4 km/h (1 Bft) 0 min 0 min 0,0 km/h (0 Bft)
02.01.2012 03:46 16,4 C 10,2 C 0,0 UV-I 0,0 C 65 % 91 % 0 % 1005,2 hPa 0,0 l/m 4,4 km/h (1 Bft) 0 min 0 min 10,4 km/h (2 Bft)
02.01.2012 03:48 16,4 C 10,2 C 0,0 UV-I 0,0 C 65 % 91 % 0 % 1005,2 hPa 0,0 l/m 4,0 km/h (1 Bft) 0 min 0 min 10,4 km/h (2 Bft)
02.01.2012 03:50 16,5 C 10,2 C 0,0 UV-I 0,0 C 65 % 91 % 0 % 1005,2 hPa 0,0 l/m 5,6 km/h (1 Bft) 0 min 0 min 10,8 km/h (2 Bft)
02.01.2012 03:52 16,4 C 10,3 C 0,0 UV-I 0,0 C 65 % 91 % 0 % 1005,2 hPa 0,0 l/m 5,6 km/h (1 Bft) 0 min 0 min 10,8 km/h (2 Bft)
02.01.2012 03:54 16,4 C 10,3 C 0,0 UV-I 0,0 C 65 % 91 % 0 % 1005,2 hPa 0,0 l/m 5,6 km/h (1 Bft) 0 min 0 min 9,2 km/h (2 Bft)
02.01.2012 03:56 16,4 C 10,2 C 0,0 UV-I 0,0 C 65 % 91 % 0 % 1005,2 hPa 0,0 l/m 6,0 km/h (2 Bft) 0 min 0 min 9,2 km/h (2 Bft)
02.01.2012 03:58 16,4 C 10,2 C 0,0 UV-I 0,0 C 65 % 91 % 0 % 1005,2 hPa 0,0 l/m 6,4 km/h (2 Bft) 0 min 0 min 8,4 km/h (2 Bft)
02.01.2012 04:00 16,4 C 10,3 C 0,0 UV-I 0,0 C 65 % 91 % 0 % 1005,2 hPa 0,0 l/m 5,2 km/h (1 Bft) 0 min 0 min 8,4 km/h (2 Bft)
02.01.2012 04:02 16,4 C 10,2 C 0,0 UV-I 0,0 C 65 % 91 % 0 % 1005,2 hPa 0,0 l/m 4,8 km/h (1 Bft) 0 min 0 min 6,0 km/h (2 Bft)
02.01.2012 04:04 16,4 C 10,3 C 0,0 UV-I 0,0 C 65 % 91 % 0 % 1005,1 hPa 0,0 l/m 5,6 km/h (1 Bft) 0 min 0 min 6,0 km/h (2 Bft)
02.01.2012 04:06 16,4 C 10,3 C 0,0 UV-I 0,0 C 65 % 91 % 0 % 1005,1 hPa 0,1 l/m 5,2 km/h (1 Bft) 0 min 0 min 7,6 km/h (2 Bft)
02.01.2012 04:08 16,4 C 10,2 C 0,0 UV-I 0,0 C 65 % 91 % 0 % 1005,1 hPa 0,0 l/m 4,8 km/h (1 Bft) 0 min 0 min 9,6 km/h (2 Bft)
02.01.2012 04:10 16,4 C 10,2 C 0,0 UV-I 0,0 C 65 % 91 % 0 % 1005,1 hPa 0,0 l/m 4,8 km/h (1 Bft) 0 min 0 min 9,6 km/h (2 Bft)
02.01.2012 04:12 16,4 C 10,2 C 0,0 UV-I 0,0 C 65 % 91 % 0 % 1005,1 hPa 0,0 l/m 5,2 km/h (1 Bft) 0 min 0 min 21,7 km/h (4 Bft)
02.01.2012 04:14 16,4 C 10,1 C 0,0 UV-I 0,0 C 65 % 91 % 0 % 1005,1 hPa 0,0 l/m 6,0 km/h (2 Bft) 0 min 0 min 21,7 km/h (4 Bft)
02.01.2012 04:16 16,4 C 10,2 C 0,0 UV-I 0,0 C 65 % 91 % 0 % 1005,1 hPa 0,0 l/m 6,4 km/h (2 Bft) 0 min 0 min 12,4 km/h (3 Bft)
02.01.2012 04:18 16,4 C 10,2 C 0,0 UV-I 0,0 C 65 % 91 % 0 % 1005,1 hPa 0,0 l/m 6,0 km/h (2 Bft) 0 min 0 min 10,8 km/h (2 Bft)
02.01.2012 04:20 16,4 C 10,1 C 0,0 UV-I 0,0 C 65 % 91 % 0 % 1005,1 hPa 0,0 l/m 5,2 km/h (1 Bft) 0 min 0 min 0,0 km/h (0 Bft)
02.01.2012 04:22 16,4 C 10,1 C 0,0 UV-I 0,0 C 65 % 91 % 0 % 1005,1 hPa 0,1 l/m 5,6 km/h (1 Bft) 0 min 0 min 10,4 km/h (2 Bft)
02.01.2012 04:24 16,4 C 10,1 C 0,0 UV-I 0,0 C 65 % 91 % 0 % 1005,4 hPa 0,0 l/m 5,2 km/h (1 Bft) 0 min 0 min 10,4 km/h (2 Bft)
02.01.2012 04:26 16,4 C 10,1 C 0,0 UV-I 0,0 C 65 % 91 % 0 % 1005,4 hPa 0,0 l/m 4,8 km/h (1 Bft) 0 min 0 min 6,0 km/h (2 Bft)
02.01.2012 04:28 16,4 C 10,1 C 0,0 UV-I 0,0 C 65 % 91 % 0 % 1005,4 hPa 0,0 l/m 5,2 km/h (1 Bft) 0 min 0 min 13,3 km/h (3 Bft)
02.01.2012 04:30 16,4 C 10,1 C 0,0 UV-I 0,0 C 65 % 91 % 0 % 1005,4 hPa 0,1 l/m 6,4 km/h (2 Bft) 0 min 0 min 13,3 km/h (3 Bft)
02.01.2012 04:32 16,4 C 10,1 C 0,0 UV-I 0,0 C 65 % 91 % 0 % 1005,4 hPa 0,0 l/m 6,8 km/h (2 Bft) 0 min 0 min 8,0 km/h (2 Bft)
02.01.2012 04:34 16,4 C 10,1 C 0,0 UV-I 0,0 C 65 % 91 % 0 % 1005,4 hPa 0,0 l/m 6,8 km/h (2 Bft) 0 min 0 min 9,2 km/h (2 Bft)
02.01.2012 04:36 16,4 C 10,1 C 0,0 UV-I 0,0 C 65 % 91 % 0 % 1005,4 hPa 0,0 l/m 6,4 km/h (2 Bft) 0 min 0 min 20,1 km/h (4 Bft)
02.01.2012 04:38 16,4 C 10,1 C 0,0 UV-I 0,0 C 65 % 91 % 0 % 1005,4 hPa 0,0 l/m 6,8 km/h (2 Bft) 0 min 0 min 20,1 km/h (4 Bft)
02.01.2012 04:40 16,4 C 10,1 C 0,0 UV-I 0,0 C 65 % 91 % 0 % 1005,4 hPa 0,0 l/m 6,0 km/h (2 Bft) 0 min 0 min 12,4 km/h (3 Bft)
02.01.2012 04:42 16,4 C 10,1 C 0,0 UV-I 0,0 C 65 % 91 % 0 % 1005,4 hPa 0,0 l/m 6,0 km/h (2 Bft) 0 min 0 min 10,0 km/h (2 Bft)
02.01.2012 04:44 16,4 C 10,1 C 0,0 UV-I 0,0 C 65 % 91 % 0 % 1004,9 hPa 0,0 l/m 6,0 km/h (2 Bft) 0 min 0 min 10,0 km/h (2 Bft)
02.01.2012 04:46 16,4 C 10,0 C 0,0 UV-I 0,0 C 65 % 91 % 0 % 1004,9 hPa 0,1 l/m 6,0 km/h (2 Bft) 0 min 0 min 7,6 km/h (2 Bft)
02.01.2012 04:48 16,4 C 10,0 C 0,0 UV-I 0,0 C 65 % 91 % 0 % 1004,9 hPa 0,0 l/m 5,6 km/h (1 Bft) 0 min 0 min 9,6 km/h (2 Bft)
02.01.2012 04:50 16,4 C 10,0 C 0,0 UV-I 0,0 C 65 % 91 % 0 % 1004,9 hPa 0,0 l/m 4,8 km/h (1 Bft) 0 min 0 min 9,6 km/h (2 Bft)
02.01.2012 04:52 16,4 C 10,0 C 0,0 UV-I 0,0 C 65 % 91 % 0 % 1004,9 hPa 0,0 l/m 4,4 km/h (1 Bft) 0 min 0 min 5,2 km/h (1 Bft)
02.01.2012 04:54 16,4 C 10,1 C 0,0 UV-I 0,0 C 65 % 91 % 0 % 1004,9 hPa 0,0 l/m 4,4 km/h (1 Bft) 0 min 0 min 6,0 km/h (2 Bft)
02.01.2012 04:56 16,4 C 10,0 C 0,0 UV-I 0,0 C 65 % 91 % 0 % 1004,9 hPa 0,0 l/m 3,2 km/h (1 Bft) 0 min 0 min 6,0 km/h (2 Bft)
02.01.2012 04:58 16,4 C 10,1 C 0,0 UV-I 0,0 C 65 % 92 % 0 % 1004,9 hPa 0,0 l/m 2,8 km/h (1 Bft) 0 min 0 min 5,2 km/h (1 Bft)
02.01.2012 05:00 16,4 C 10,1 C 0,0 UV-I 0,0 C 65 % 91 % 0 % 1004,9 hPa 0,0 l/m 3,2 km/h (1 Bft) 0 min 0 min 10,0 km/h (2 Bft)
02.01.2012 05:02 16,2 C 10,0 C 0,0 UV-I 0,0 C 65 % 91 % 0 % 1004,9 hPa 0,0 l/m 3,6 km/h (1 Bft) 0 min 0 min 18,9 km/h (3 Bft)
02.01.2012 05:04 16,2 C 10,1 C 0,0 UV-I 0,0 C 65 % 92 % 0 % 1004,9 hPa 0,0 l/m 4,4 km/h (1 Bft) 0 min 0 min 6,0 km/h (2 Bft)
02.01.2012 05:06 16,2 C 10,0 C 0,0 UV-I 0,0 C 65 % 92 % 0 % 1004,9 hPa 0,0 l/m 4,8 km/h (1 Bft) 0 min 0 min 6,0 km/h (2 Bft)
02.01.2012 05:08 16,2 C 10,0 C 0,0 UV-I 0,0 C 65 % 92 % 0 % 1004,9 hPa 0,1 l/m 6,0 km/h (2 Bft) 0 min 0 min 15,3 km/h (3 Bft)
02.01.2012 05:10 16,3 C 10,0 C 0,0 UV-I 0,0 C 65 % 92 % 0 % 1004,9 hPa 0,0 l/m 5,6 km/h (1 Bft) 0 min 0 min 15,3 km/h (3 Bft)
02.01.2012 05:12 16,2 C 10,0 C 0,0 UV-I 0,0 C 65 % 92 % 0 % 1004,9 hPa 0,0 l/m 5,6 km/h (1 Bft) 0 min 0 min 0,0 km/h (0 Bft)
02.01.2012 05:14 16,2 C 10,0 C 0,0 UV-I 0,0 C 65 % 92 % 0 % 1004,9 hPa 0,0 l/m 6,8 km/h (2 Bft) 0 min 0 min 7,2 km/h (2 Bft)
02.01.2012 05:16 16,2 C 10,0 C 0,0 UV-I 0,0 C 65 % 92 % 0 % 1004,9 hPa 0,0 l/m 6,8 km/h (2 Bft) 0 min 0 min 20,5 km/h (4 Bft)
02.01.2012 05:18 16,3 C 10,0 C 0,0 UV-I 0,0 C 65 % 92 % 0 % 1004,9 hPa 0,0 l/m 6,8 km/h (2 Bft) 0 min 0 min 20,5 km/h (4 Bft)
02.01.2012 05:20 16,2 C 9,9 C 0,0 UV-I 0,0 C 65 % 92 % 0 % 1004,9 hPa 0,0 l/m 6,4 km/h (2 Bft) 0 min 0 min 6,4 km/h (2 Bft)
02.01.2012 05:22 16,2 C 9,9 C 0,0 UV-I 0,0 C 65 % 92 % 0 % 1004,9 hPa 0,0 l/m 6,4 km/h (2 Bft) 0 min 0 min 12,4 km/h (3 Bft)
02.01.2012 05:24 16,3 C 9,9 C 0,0 UV-I 0,0 C 65 % 92 % 0 % 1004,8 hPa 0,0 l/m 6,0 km/h (2 Bft) 0 min 0 min 12,4 km/h (3 Bft)
02.01.2012 05:26 16,2 C 9,9 C 0,0 UV-I 0,0 C 65 % 92 % 0 % 1004,8 hPa 0,0 l/m 6,0 km/h (2 Bft) 0 min 0 min 11,2 km/h (2 Bft)
02.01.2012 05:28 16,2 C 9,9 C 0,0 UV-I 0,0 C 65 % 92 % 0 % 1004,8 hPa 0,0 l/m 6,0 km/h (2 Bft) 0 min 0 min 9,6 km/h (2 Bft)
02.01.2012 05:30 16,2 C 9,9 C 0,0 UV-I 0,0 C 65 % 92 % 0 % 1004,8 hPa 0,0 l/m 6,0 km/h (2 Bft) 0 min 0 min 25,3 km/h (4 Bft)
02.01.2012 05:32 16,2 C 9,9 C 0,0 UV-I 0,0 C 64 % 92 % 0 % 1004,8 hPa 0,0 l/m 6,0 km/h (2 Bft) 0 min 0 min 25,3 km/h (4 Bft)
02.01.2012 05:34 16,2 C 9,9 C 0,0 UV-I 0,0 C 64 % 92 % 0 % 1004,8 hPa 0,0 l/m 6,0 km/h (2 Bft) 0 min 0 min 10,8 km/h (2 Bft)
02.01.2012 05:36 16,2 C 9,8 C 0,0 UV-I 0,0 C 64 % 92 % 0 % 1004,8 hPa 0,0 l/m 4,8 km/h (1 Bft) 0 min 0 min 10,8 km/h (2 Bft)
02.01.2012 05:38 16,2 C 9,8 C 0,0 UV-I 0,0 C 65 % 92 % 0 % 1004,8 hPa 0,0 l/m 5,2 km/h (1 Bft) 0 min 0 min 8,8 km/h (2 Bft)
02.01.2012 05:40 16,3 C 9,8 C 0,0 UV-I 0,0 C 64 % 92 % 0 % 1004,8 hPa 0,0 l/m 5,2 km/h (1 Bft) 0 min 0 min 7,6 km/h (2 Bft)
02.01.2012 05:42 16,2 C 9,9 C 0,0 UV-I 0,0 C 64 % 92 % 0 % 1004,8 hPa 0,0 l/m 5,6 km/h (1 Bft) 0 min 0 min 10,4 km/h (2 Bft)
02.01.2012 05:44 16,2 C 9,9 C 0,0 UV-I 0,0 C 64 % 92 % 0 % 1004,8 hPa 0,0 l/m 5,2 km/h (1 Bft) 0 min 0 min 10,4 km/h (2 Bft)
02.01.2012 05:46 16,2 C 9,9 C 0,0 UV-I 0,0 C 64 % 92 % 0 % 1004,8 hPa 0,0 l/m 5,6 km/h (1 Bft) 0 min 0 min 0,0 km/h (0 Bft)
02.01.2012 05:48 16,3 C 9,9 C 0,0 UV-I 0,0 C 64 % 92 % 0 % 1004,8 hPa 0,0 l/m 4,8 km/h (1 Bft) 0 min 0 min 10,8 km/h (2 Bft)
02.01.2012 05:50 16,2 C 9,9 C 0,0 UV-I 0,0 C 64 % 92 % 0 % 1004,8 hPa 0,0 l/m 4,8 km/h (1 Bft) 0 min 0 min 10,8 km/h (2 Bft)
02.01.2012 05:52 16,3 C 9,8 C 0,0 UV-I 0,0 C 64 % 92 % 0 % 1004,8 hPa 0,0 l/m 4,8 km/h (1 Bft) 0 min 0 min 9,2 km/h (2 Bft)
02.01.2012 05:54 16,3 C 9,8 C 0,0 UV-I 0,0 C 65 % 92 % 0 % 1004,8 hPa 0,0 l/m 5,2 km/h (1 Bft) 0 min 0 min 9,2 km/h (2 Bft)
02.01.2012 05:56 16,3 C 9,8 C 0,0 UV-I 0,0 C 64 % 92 % 0 % 1004,8 hPa 0,0 l/m 5,6 km/h (1 Bft) 0 min 0 min 8,4 km/h (2 Bft)
02.01.2012 05:58 16,3 C 9,8 C 0,0 UV-I 0,0 C 64 % 92 % 0 % 1004,8 hPa 0,0 l/m 5,6 km/h (1 Bft) 0 min 0 min 6,0 km/h (2 Bft)
02.01.2012 06:00 16,3 C 9,8 C 0,0 UV-I 0,0 C 64 % 92 % 0 % 1004,8 hPa 0,0 l/m 5,6 km/h (1 Bft) 0 min 0 min 5,6 km/h (1 Bft)
02.01.2012 06:02 16,2 C 9,8 C 0,0 UV-I 0,0 C 64 % 92 % 0 % 1004,8 hPa 0,0 l/m 6,0 km/h (2 Bft) 0 min 0 min 6,8 km/h (2 Bft)
02.01.2012 06:04 16,2 C 9,8 C 0,0 UV-I 0,0 C 64 % 92 % 0 % 1005,0 hPa 0,0 l/m 4,8 km/h (1 Bft) 0 min 0 min 4,4 km/h (1 Bft)
02.01.2012 06:06 16,2 C 9,7 C 0,0 UV-I 0,0 C 64 % 92 % 0 % 1005,0 hPa 0,0 l/m 4,8 km/h (1 Bft) 0 min 0 min 6,4 km/h (2 Bft)
02.01.2012 06:08 16,2 C 9,7 C 0,0 UV-I 0,0 C 65 % 92 % 0 % 1005,0 hPa 0,0 l/m 4,8 km/h (1 Bft) 0 min 0 min 13,3 km/h (3 Bft)
02.01.2012 06:10 16,2 C 9,8 C 0,0 UV-I 0,0 C 64 % 92 % 0 % 1005,0 hPa 0,0 l/m 4,0 km/h (1 Bft) 0 min 0 min 13,3 km/h (3 Bft)
02.01.2012 06:12 16,2 C 9,7 C 0,0 UV-I 0,0 C 65 % 92 % 0 % 1005,0 hPa 0,0 l/m 3,6 km/h (1 Bft) 0 min 0 min 4,8 km/h (1 Bft)
02.01.2012 06:14 16,2 C 9,7 C 0,0 UV-I 0,0 C 64 % 92 % 0 % 1005,0 hPa 0,0 l/m 3,6 km/h (1 Bft) 0 min 0 min 6,4 km/h (2 Bft)
02.01.2012 06:16 16,2 C 9,7 C 0,0 UV-I 0,0 C 65 % 92 % 0 % 1005,0 hPa 0,0 l/m 3,2 km/h (1 Bft) 0 min 2 min 6,4 km/h (2 Bft)
02.01.2012 06:18 16,2 C 9,7 C 0,0 UV-I 0,0 C 64 % 91 % 0 % 1005,0 hPa 0,0 l/m 2,8 km/h (1 Bft) 0 min 2 min 7,6 km/h (2 Bft)
02.01.2012 06:20 16,2 C 9,7 C 0,0 UV-I 0,0 C 64 % 92 % 0 % 1005,0 hPa 0,0 l/m 3,2 km/h (1 Bft) 0 min 2 min 24,1 km/h (4 Bft)
02.01.2012 06:22 16,2 C 9,7 C 0,0 UV-I 0,0 C 65 % 92 % 0 % 1005,0 hPa 0,0 l/m 4,4 km/h (1 Bft) 0 min 2 min 24,1 km/h (4 Bft)
02.01.2012 06:24 16,2 C 9,7 C 0,0 UV-I 0,0 C 64 % 91 % 0 % 1004,9 hPa 0,0 l/m 4,8 km/h (1 Bft) 0 min 2 min 19,7 km/h (3 Bft)
02.01.2012 06:26 16,2 C 9,7 C 0,0 UV-I 0,0 C 64 % 91 % 0 % 1004,9 hPa 0,0 l/m 5,6 km/h (1 Bft) 0 min 2 min 10,4 km/h (2 Bft)
02.01.2012 06:28 16,2 C 9,7 C 0,0 UV-I 0,0 C 64 % 91 % 0 % 1004,9 hPa 0,0 l/m 6,0 km/h (2 Bft) 0 min 0 min 0,0 km/h (0 Bft)
02.01.2012 06:30 16,2 C 9,7 C 0,0 UV-I 0,0 C 64 % 91 % 0 % 1004,9 hPa 0,0 l/m 6,8 km/h (2 Bft) 0 min 0 min 5,2 km/h (1 Bft)
02.01.2012 06:32 16,2 C 9,6 C 0,0 UV-I 0,0 C 64 % 91 % 0 % 1004,9 hPa 0,1 l/m 6,4 km/h (2 Bft) 0 min 2 min 10,0 km/h (2 Bft)
02.01.2012 06:34 16,2 C 9,6 C 0,0 UV-I 0,0 C 64 % 91 % 0 % 1004,9 hPa 0,0 l/m 5,6 km/h (1 Bft) 0 min 2 min 12,4 km/h (3 Bft)
02.01.2012 06:36 16,2 C 9,6 C 0,0 UV-I 0,0 C 64 % 91 % 0 % 1004,9 hPa 0,0 l/m 6,0 km/h (2 Bft) 0 min 2 min 12,4 km/h (3 Bft)
02.01.2012 06:38 16,2 C 9,7 C 0,0 UV-I 0,0 C 64 % 91 % 0 % 1004,9 hPa 0,0 l/m 6,8 km/h (2 Bft) 0 min 2 min 10,4 km/h (2 Bft)
02.01.2012 06:40 16,2 C 9,6 C 0,0 UV-I 0,0 C 64 % 91 % 0 % 1004,9 hPa 0,0 l/m 6,4 km/h (2 Bft) 0 min 2 min 10,4 km/h (2 Bft)
02.01.2012 06:42 16,2 C 9,5 C 0,0 UV-I 0,0 C 64 % 91 % 0 % 1004,9 hPa 0,0 l/m 6,0 km/h (2 Bft) 0 min 2 min 9,6 km/h (2 Bft)
02.01.2012 06:44 16,2 C 9,5 C 0,0 UV-I 0,0 C 64 % 91 % 0 % 1004,9 hPa 0,0 l/m 5,6 km/h (1 Bft) 0 min 2 min 6,4 km/h (2 Bft)
02.01.2012 06:46 16,2 C 9,5 C 0,0 UV-I 0,0 C 64 % 91 % 0 % 1004,9 hPa 0,0 l/m 5,2 km/h (1 Bft) 0 min 2 min 9,2 km/h (2 Bft)
02.01.2012 06:48 16,2 C 9,4 C 0,0 UV-I 0,0 C 64 % 90 % 0 % 1004,9 hPa 0,1 l/m 4,8 km/h (1 Bft) 0 min 2 min 9,2 km/h (2 Bft)
02.01.2012 06:50 16,2 C 9,3 C 0,0 UV-I 0,0 C 63 % 90 % 0 % 1004,9 hPa 0,0 l/m 4,4 km/h (1 Bft) 0 min 2 min 6,0 km/h (2 Bft)
02.01.2012 06:52 16,2 C 9,2 C 0,0 UV-I 0,0 C 63 % 90 % 0 % 1004,9 hPa 0,0 l/m 4,4 km/h (1 Bft) 0 min 2 min 8,0 km/h (2 Bft)
02.01.2012 06:54 16,2 C 9,2 C 0,0 UV-I 0,0 C 63 % 90 % 0 % 1004,9 hPa 0,0 l/m 4,4 km/h (1 Bft) 0 min 2 min 8,0 km/h (2 Bft)
02.01.2012 06:56 16,2 C 9,3 C 0,0 UV-I 0,0 C 63 % 90 % 0 % 1004,9 hPa 0,0 l/m 4,0 km/h (1 Bft) 0 min 2 min 5,6 km/h (1 Bft)
02.01.2012 06:58 16,2 C 9,2 C 0,0 UV-I 0,0 C 63 % 90 % 0 % 1004,9 hPa 0,0 l/m 3,6 km/h (1 Bft) 0 min 0 min 8,4 km/h (2 Bft)
02.01.2012 07:00 16,2 C 9,3 C 0,0 UV-I 0,0 C 63 % 90 % 0 % 1004,9 hPa 0,0 l/m 4,0 km/h (1 Bft) 0 min 0 min 8,4 km/h (2 Bft)
02.01.2012 07:02 16,2 C 9,2 C 0,0 UV-I 0,0 C 63 % 90 % 0 % 1004,9 hPa 0,0 l/m 4,0 km/h (1 Bft) 0 min 0 min 7,6 km/h (2 Bft)
02.01.2012 07:04 16,2 C 9,2 C 0,0 UV-I 0,0 C 63 % 90 % 0 % 1005,2 hPa 0,0 l/m 3,6 km/h (1 Bft) 0 min 0 min 7,6 km/h (2 Bft)
02.01.2012 07:06 16,1 C 9,2 C 0,0 UV-I 0,0 C 63 % 91 % 0 % 1005,2 hPa 0,0 l/m 4,4 km/h (1 Bft) 0 min 0 min 15,3 km/h (3 Bft)
02.01.2012 07:08 16,1 C 9,2 C 0,0 UV-I 0,0 C 63 % 91 % 0 % 1005,2 hPa 0,0 l/m 5,2 km/h (1 Bft) 0 min 0 min 17,7 km/h (3 Bft)
02.01.2012 07:10 16,1 C 9,3 C 0,0 UV-I 0,0 C 63 % 91 % 0 % 1005,2 hPa 0,0 l/m 4,8 km/h (1 Bft) 0 min 2 min 17,7 km/h (3 Bft)
02.01.2012 07:12 16,2 C 9,3 C 0,0 UV-I 0,0 C 63 % 91 % 0 % 1005,2 hPa 0,1 l/m 5,6 km/h (1 Bft) 0 min 2 min 8,0 km/h (2 Bft)
02.01.2012 07:14 16,2 C 9,3 C 0,0 UV-I 0,0 C 63 % 91 % 0 % 1005,2 hPa 0,0 l/m 6,0 km/h (2 Bft) 0 min 2 min 8,0 km/h (2 Bft)
02.01.2012 07:16 16,2 C 9,3 C 0,0 UV-I 0,0 C 63 % 91 % 0 % 1005,2 hPa 0,0 l/m 6,0 km/h (2 Bft) 0 min 2 min 12,8 km/h (3 Bft)
02.01.2012 07:18 16,2 C 9,2 C 0,0 UV-I 0,0 C 63 % 91 % 0 % 1005,2 hPa 0,0 l/m 6,4 km/h (2 Bft) 0 min 2 min 13,7 km/h (3 Bft)
02.01.2012 07:20 16,2 C 9,2 C 0,0 UV-I 0,0 C 63 % 91 % 0 % 1005,2 hPa 0,0 l/m 6,8 km/h (2 Bft) 0 min 2 min 13,7 km/h (3 Bft)
02.01.2012 07:22 16,2 C 9,2 C 0,0 UV-I 0,0 C 63 % 91 % 0 % 1005,2 hPa 0,0 l/m 6,0 km/h (2 Bft) 0 min 2 min 9,6 km/h (2 Bft)
02.01.2012 07:24 16,2 C 9,2 C 0,0 UV-I 0,0 C 63 % 91 % 0 % 1005,6 hPa 0,1 l/m 6,0 km/h (2 Bft) 0 min 2 min 9,6 km/h (2 Bft)
02.01.2012 07:26 16,1 C 9,2 C 0,0 UV-I 0,0 C 63 % 91 % 0 % 1005,6 hPa 0,0 l/m 7,6 km/h (2 Bft) 0 min 2 min 10,4 km/h (2 Bft)
02.01.2012 07:28 16,2 C 9,0 C 0,0 UV-I 0,0 C 63 % 90 % 0 % 1005,6 hPa 0,1 l/m 8,4 km/h (2 Bft) 0 min 2 min 21,7 km/h (4 Bft)
02.01.2012 07:30 16,2 C 8,8 C 0,0 UV-I 0,0 C 63 % 90 % 0 % 1005,6 hPa 0,1 l/m 8,8 km/h (2 Bft) 0 min 2 min 21,7 km/h (4 Bft)
02.01.2012 07:32 16,1 C 8,6 C 0,0 UV-I 0,0 C 63 % 89 % 0 % 1005,6 hPa 0,0 l/m 9,6 km/h (2 Bft) 0 min 2 min 14,5 km/h (3 Bft)
02.01.2012 07:34 16,2 C 8,5 C 0,0 UV-I 0,0 C 63 % 89 % 0 % 1005,6 hPa 0,0 l/m 8,8 km/h (2 Bft) 0 min 2 min 6,0 km/h (2 Bft)
02.01.2012 07:36 16,2 C 8,5 C 0,0 UV-I 0,0 C 63 % 89 % 0 % 1005,6 hPa 0,0 l/m 8,8 km/h (2 Bft) 0 min 2 min 8,8 km/h (2 Bft)
02.01.2012 07:38 16,2 C 8,3 C 0,0 UV-I 0,0 C 63 % 89 % 0 % 1005,6 hPa 0,0 l/m 8,0 km/h (2 Bft) 0 min 0 min 8,8 km/h (2 Bft)
02.01.2012 07:40 16,2 C 8,3 C 0,0 UV-I 0,0 C 62 % 89 % 0 % 1005,6 hPa 0,0 l/m 7,2 km/h (2 Bft) 0 min 0 min 14,5 km/h (3 Bft)
02.01.2012 07:42 16,2 C 8,3 C 0,0 UV-I 0,0 C 62 % 89 % 0 % 1005,6 hPa 0,0 l/m 6,0 km/h (2 Bft) 0 min 0 min 14,5 km/h (3 Bft)
02.01.2012 07:44 16,2 C 8,1 C 0,0 UV-I 0,0 C 62 % 89 % 0 % 1005,8 hPa 0,0 l/m 6,0 km/h (2 Bft) 0 min 0 min 9,2 km/h (2 Bft)
02.01.2012 07:46 16,1 C 8,1 C 0,0 UV-I 0,0 C 62 % 90 % 0 % 1005,8 hPa 0,1 l/m 5,6 km/h (1 Bft) 0 min 0 min 9,2 km/h (2 Bft)
02.01.2012 07:48 16,1 C 8,0 C 0,0 UV-I 0,0 C 62 % 90 % 0 % 1005,8 hPa 0,0 l/m 4,8 km/h (1 Bft) 0 min 2 min 4,0 km/h (1 Bft)
02.01.2012 07:50 16,1 C 8,0 C 0,0 UV-I 0,0 C 62 % 90 % 0 % 1005,8 hPa 0,0 l/m 4,4 km/h (1 Bft) 0 min 2 min 0,0 km/h (0 Bft)
02.01.2012 07:52 15,9 C 8,0 C 0,0 UV-I 0,0 C 62 % 90 % 0 % 1005,8 hPa 0,0 l/m 3,6 km/h (1 Bft) 0 min 2 min 0,0 km/h (0 Bft)
02.01.2012 07:54 15,9 C 7,9 C 0,0 UV-I 0,0 C 62 % 90 % 0 % 1005,8 hPa 0,0 l/m 3,6 km/h (1 Bft) 0 min 2 min 6,4 km/h (2 Bft)
02.01.2012 07:56 15,9 C 7,9 C 0,0 UV-I 0,0 C 62 % 90 % 0 % 1005,8 hPa 0,0 l/m 2,8 km/h (1 Bft) 0 min 2 min 6,4 km/h (2 Bft)
02.01.2012 07:58 15,9 C 7,8 C 0,0 UV-I 0,0 C 62 % 90 % 0 % 1005,8 hPa 0,0 l/m 2,0 km/h (1 Bft) 0 min 2 min 0,0 km/h (0 Bft)
02.01.2012 08:00 16,0 C 7,9 C 0,0 UV-I 0,0 C 62 % 90 % 0 % 1005,8 hPa 0,0 l/m 2,0 km/h (1 Bft) 0 min 2 min 0,0 km/h (0 Bft)
02.01.2012 08:02 16,0 C 7,9 C 0,0 UV-I 0,0 C 62 % 90 % 0 % 1005,8 hPa 0,1 l/m 1,2 km/h (1 Bft) 0 min 2 min 0,0 km/h (0 Bft)
02.01.2012 08:04 16,0 C 7,7 C 0,0 UV-I 0,0 C 62 % 90 % 0 % 1006,5 hPa 0,0 l/m 1,2 km/h (1 Bft) 0 min 2 min 0,0 km/h (0 Bft)
02.01.2012 08:06 16,0 C 7,7 C 0,0 UV-I 0,0 C 62 % 90 % 0 % 1006,5 hPa 0,0 l/m 0,8 km/h (0 Bft) 0 min 2 min 4,0 km/h (1 Bft)
02.01.2012 08:08 15,8 C 7,7 C 0,0 UV-I 0,0 C 62 % 91 % 0 % 1006,5 hPa 0,0 l/m 0,4 km/h (0 Bft) 0 min 0 min 4,0 km/h (1 Bft)
02.01.2012 08:10 15,8 C 7,7 C 0,0 UV-I 0,0 C 62 % 90 % 0 % 1006,5 hPa 0,0 l/m 0,4 km/h (0 Bft) 0 min 0 min 4,0 km/h (1 Bft)
02.01.2012 08:12 15,8 C 7,6 C 0,0 UV-I 0,0 C 62 % 91 % 0 % 1006,5 hPa 0,0 l/m 0,4 km/h (0 Bft) 0 min 0 min 4,8 km/h (1 Bft)
02.01.2012 08:14 15,9 C 7,6 C 0,0 UV-I 0,0 C 62 % 91 % 0 % 1006,5 hPa 0,0 l/m 0,4 km/h (0 Bft) 0 min 2 min 4,8 km/h (1 Bft)
02.01.2012 08:16 15,9 C 7,6 C 0,0 UV-I 0,0 C 62 % 91 % 0 % 1006,5 hPa 0,0 l/m 0,8 km/h (0 Bft) 0 min 2 min 8,0 km/h (2 Bft)
02.01.2012 08:18 15,9 C 7,7 C 0,0 UV-I 0,0 C 62 % 91 % 0 % 1006,5 hPa 0,0 l/m 1,2 km/h (1 Bft) 0 min 0 min 8,0 km/h (2 Bft)
02.01.2012 08:20 15,9 C 7,7 C 0,0 UV-I 0,0 C 62 % 91 % 0 % 1006,5 hPa 0,0 l/m 1,2 km/h (1 Bft) 0 min 0 min 4,4 km/h (1 Bft)
02.01.2012 08:22 15,9 C 7,6 C 0,0 UV-I 0,0 C 62 % 91 % 0 % 1006,5 hPa 0,0 l/m 2,4 km/h (1 Bft) 0 min 0 min 7,2 km/h (2 Bft)
02.01.2012 08:24 15,9 C 7,6 C 0,0 UV-I 0,0 C 62 % 91 % 0 % 1006,6 hPa 0,0 l/m 2,4 km/h (1 Bft) 0 min 0 min 7,2 km/h (2 Bft)
02.01.2012 08:26 15,8 C 7,5 C 0,0 UV-I 0,0 C 62 % 91 % 0 % 1006,6 hPa 0,0 l/m 2,8 km/h (1 Bft) 0 min 0 min 6,4 km/h (2 Bft)
02.01.2012 08:28 15,8 C 7,6 C 0,0 UV-I 0,0 C 62 % 91 % 0 % 1006,6 hPa 0,0 l/m 2,8 km/h (1 Bft) 0 min 0 min 5,6 km/h (1 Bft)
02.01.2012 08:30 15,8 C 7,5 C 0,0 UV-I 0,0 C 62 % 91 % 0 % 1006,6 hPa 0,0 l/m 3,2 km/h (1 Bft) 0 min 0 min 5,6 km/h (1 Bft)
02.01.2012 08:32 15,8 C 7,5 C 0,0 UV-I 0,0 C 62 % 91 % 0 % 1006,6 hPa 0,1 l/m 2,8 km/h (1 Bft) 0 min 2 min 5,2 km/h (1 Bft)
02.01.2012 08:34 15,8 C 7,5 C 0,0 UV-I 0,0 C 62 % 91 % 0 % 1006,6 hPa 0,0 l/m 2,4 km/h (1 Bft) 0 min 2 min 5,2 km/h (1 Bft)
02.01.2012 08:36 15,8 C 7,5 C 0,0 UV-I 0,0 C 62 % 91 % 0 % 1006,6 hPa 0,0 l/m 2,4 km/h (1 Bft) 0 min 2 min 4,8 km/h (1 Bft)
02.01.2012 08:38 15,8 C 7,5 C 0,0 UV-I 0,0 C 62 % 91 % 0 % 1006,6 hPa 0,0 l/m 2,0 km/h (1 Bft) 0 min 2 min 5,6 km/h (1 Bft)
02.01.2012 08:40 15,8 C 7,4 C 0,0 UV-I 0,0 C 62 % 91 % 0 % 1006,6 hPa 0,0 l/m 1,6 km/h (1 Bft) 0 min 2 min 5,6 km/h (1 Bft)
02.01.2012 08:42 15,8 C 7,4 C 0,0 UV-I 0,0 C 62 % 91 % 0 % 1006,6 hPa 0,0 l/m 1,2 km/h (1 Bft) 0 min 2 min 4,0 km/h (1 Bft)
02.01.2012 08:44 15,8 C 7,4 C 0,0 UV-I 0,0 C 62 % 91 % 0 % 1006,4 hPa 0,0 l/m 0,8 km/h (0 Bft) 0 min 2 min 4,0 km/h (1 Bft)
02.01.2012 08:46 15,8 C 7,5 C 0,0 UV-I 0,0 C 62 % 91 % 0 % 1006,4 hPa 0,0 l/m 0,8 km/h (0 Bft) 0 min 0 min 6,0 km/h (2 Bft)
02.01.2012 08:48 15,8 C 7,4 C 0,0 UV-I 0,0 C 62 % 91 % 0 % 1006,4 hPa 0,0 l/m 0,8 km/h (0 Bft) 0 min 0 min 6,0 km/h (2 Bft)
02.01.2012 08:50 15,8 C 7,5 C 0,0 UV-I 0,0 C 62 % 91 % 0 % 1006,4 hPa 0,0 l/m 0,8 km/h (0 Bft) 0 min 0 min 0,0 km/h (0 Bft)
02.01.2012 08:52 15,8 C 7,5 C 0,0 UV-I 0,0 C 62 % 91 % 0 % 1006,4 hPa 0,0 l/m 0,8 km/h (0 Bft) 0 min 0 min 0,0 km/h (0 Bft)
02.01.2012 08:54 15,8 C 7,5 C 0,0 UV-I 0,0 C 62 % 91 % 0 % 1006,4 hPa 0,0 l/m 0,4 km/h (0 Bft) 0 min 2 min 0,0 km/h (0 Bft)
02.01.2012 08:56 15,8 C 7,5 C 0,0 UV-I 0,0 C 62 % 91 % 0 % 1006,4 hPa 0,0 l/m 0,4 km/h (0 Bft) 0 min 2 min 0,0 km/h (0 Bft)
02.01.2012 08:58 15,8 C 7,4 C 0,0 UV-I 0,0 C 62 % 91 % 0 % 1006,4 hPa 0,0 l/m 0,0 km/h (0 Bft) 0 min 2 min 0,0 km/h (0 Bft)
02.01.2012 09:00 15,8 C 7,5 C 0,0 UV-I 0,0 C 62 % 91 % 0 % 1006,4 hPa 0,1 l/m 0,0 km/h (0 Bft) 0 min 2 min 0,0 km/h (0 Bft)
02.01.2012 09:02 15,8 C 7,4 C 0,0 UV-I 0,0 C 62 % 91 % 0 % 1006,4 hPa 0,0 l/m 0,4 km/h (0 Bft) 0 min 2 min 5,2 km/h (1 Bft)
02.01.2012 09:04 15,8 C 7,3 C 0,0 UV-I 0,0 C 62 % 91 % 0 % 1006,7 hPa 0,0 l/m 0,4 km/h (0 Bft) 0 min 2 min 0,0 km/h (0 Bft)
02.01.2012 09:06 15,8 C 7,3 C 0,0 UV-I 0,0 C 62 % 91 % 0 % 1006,7 hPa 0,0 l/m 0,4 km/h (0 Bft) 0 min 2 min 0,0 km/h (0 Bft)
02.01.2012 09:08 15,8 C 7,3 C 0,0 UV-I 0,0 C 62 % 91 % 0 % 1006,7 hPa 0,0 l/m 0,8 km/h (0 Bft) 0 min 2 min 0,0 km/h (0 Bft)
02.01.2012 09:10 15,6 C 7,3 C 0,0 UV-I 0,0 C 62 % 91 % 0 % 1006,7 hPa 0,0 l/m 1,2 km/h (1 Bft) 0 min 2 min 0,0 km/h (0 Bft)
02.01.2012 09:12 15,6 C 7,4 C 0,0 UV-I 0,0 C 62 % 91 % 0 % 1006,7 hPa 0,0 l/m 1,2 km/h (1 Bft) 0 min 2 min 0,0 km/h (0 Bft)
02.01.2012 09:14 15,6 C 7,3 C 0,0 UV-I 0,0 C 62 % 91 % 0 % 1006,7 hPa 0,0 l/m 1,2 km/h (1 Bft) 0 min 2 min 0,0 km/h (0 Bft)
02.01.2012 09:16 15,6 C 7,4 C 0,0 UV-I 0,0 C 62 % 91 % 0 % 1006,7 hPa 0,0 l/m 0,8 km/h (0 Bft) 0 min 2 min 0,0 km/h (0 Bft)
02.01.2012 09:18 15,6 C 7,3 C 0,0 UV-I 0,0 C 62 % 91 % 0 % 1006,7 hPa 0,1 l/m 1,2 km/h (1 Bft) 0 min 2 min 12,0 km/h (2 Bft)
02.01.2012 09:20 15,8 C 7,4 C 0,0 UV-I 0,0 C 62 % 91 % 0 % 1006,7 hPa 0,0 l/m 1,6 km/h (1 Bft) 0 min 2 min 12,0 km/h (2 Bft)
02.01.2012 09:22 15,6 C 7,5 C 0,0 UV-I 0,0 C 62 % 91 % 0 % 1006,7 hPa 0,0 l/m 1,6 km/h (1 Bft) 0 min 2 min 4,4 km/h (1 Bft)
02.01.2012 09:24 15,6 C 7,4 C 0,0 UV-I 0,0 C 62 % 91 % 0 % 1006,9 hPa 0,1 l/m 1,6 km/h (1 Bft) 0 min 2 min 4,4 km/h (1 Bft)
02.01.2012 09:26 15,6 C 7,3 C 0,0 UV-I 0,0 C 62 % 91 % 0 % 1006,9 hPa 0,0 l/m 2,0 km/h (1 Bft) 0 min 2 min 7,6 km/h (2 Bft)
02.01.2012 09:28 15,6 C 7,3 C 0,0 UV-I 0,0 C 62 % 91 % 0 % 1006,9 hPa 0,0 l/m 2,4 km/h (1 Bft) 0 min 2 min 7,6 km/h (2 Bft)
02.01.2012 09:30 15,6 C 7,4 C 0,0 UV-I 0,0 C 62 % 91 % 0 % 1006,9 hPa 0,0 l/m 2,0 km/h (1 Bft) 0 min 2 min 0,0 km/h (0 Bft)
02.01.2012 09:32 15,6 C 7,4 C 0,0 UV-I 0,0 C 62 % 91 % 0 % 1006,9 hPa 0,1 l/m 2,0 km/h (1 Bft) 0 min 2 min 6,8 km/h (2 Bft)
02.01.2012 09:34 15,6 C 7,3 C 0,0 UV-I 0,0 C 62 % 91 % 0 % 1006,9 hPa 0,0 l/m 2,4 km/h (1 Bft) 0 min 2 min 6,8 km/h (2 Bft)
02.01.2012 09:36 15,6 C 7,3 C 0,0 UV-I 0,0 C 62 % 91 % 0 % 1006,9 hPa 0,0 l/m 2,8 km/h (1 Bft) 0 min 2 min 0,0 km/h (0 Bft)
02.01.2012 09:38 15,6 C 7,3 C 0,0 UV-I 0,0 C 62 % 91 % 0 % 1006,9 hPa 0,0 l/m 2,0 km/h (1 Bft) 0 min 2 min 0,0 km/h (0 Bft)
02.01.2012 09:40 15,6 C 7,3 C 0,0 UV-I 0,0 C 62 % 91 % 0 % 1006,9 hPa 0,0 l/m 2,0 km/h (1 Bft) 0 min 2 min 0,0 km/h (0 Bft)
02.01.2012 09:42 15,6 C 7,3 C 0,0 UV-I 0,0 C 62 % 92 % 0 % 1006,9 hPa 0,0 l/m 2,4 km/h (1 Bft) 0 min 2 min 10,8 km/h (2 Bft)
02.01.2012 09:44 15,6 C 7,4 C 0,0 UV-I 0,0 C 62 % 92 % 0 % 1007,2 hPa 0,1 l/m 2,4 km/h (1 Bft) 0 min 2 min 10,8 km/h (2 Bft)
02.01.2012 09:46 15,6 C 7,3 C 0,0 UV-I 0,0 C 62 % 92 % 0 % 1007,2 hPa 0,0 l/m 2,4 km/h (1 Bft) 0 min 2 min 4,8 km/h (1 Bft)
02.01.2012 09:48 15,6 C 7,5 C 0,0 UV-I 0,0 C 62 % 92 % 0 % 1007,2 hPa 0,0 l/m 2,4 km/h (1 Bft) 0 min 2 min 5,2 km/h (1 Bft)
02.01.2012 09:50 15,6 C 7,4 C 0,0 UV-I 0,0 C 62 % 92 % 0 % 1007,2 hPa 0,0 l/m 2,8 km/h (1 Bft) 0 min 2 min 5,2 km/h (1 Bft)
02.01.2012 09:52 15,6 C 7,3 C 0,0 UV-I 0,0 C 62 % 92 % 0 % 1007,2 hPa 0,0 l/m 3,2 km/h (1 Bft) 0 min 0 min 7,2 km/h (2 Bft)
02.01.2012 09:54 15,6 C 7,3 C 0,0 UV-I 0,0 C 62 % 92 % 0 % 1007,2 hPa 0,0 l/m 3,2 km/h (1 Bft) 0 min 0 min 7,2 km/h (2 Bft)
02.01.2012 09:56 15,6 C 7,5 C 0,0 UV-I 0,0 C 62 % 92 % 0 % 1007,2 hPa 0,0 l/m 3,6 km/h (1 Bft) 0 min 0 min 10,8 km/h (2 Bft)
02.01.2012 09:58 15,6 C 7,5 C 0,0 UV-I 0,0 C 62 % 92 % 0 % 1007,2 hPa 0,0 l/m 4,0 km/h (1 Bft) 0 min 0 min 10,8 km/h (2 Bft)
02.01.2012 10:00 15,6 C 7,5 C 0,0 UV-I 0,0 C 62 % 92 % 0 % 1007,2 hPa 0,0 l/m 4,4 km/h (1 Bft) 0 min 0 min 10,0 km/h (2 Bft)
02.01.2012 10:02 15,6 C 7,5 C 0,0 UV-I 0,0 C 62 % 92 % 0 % 1007,2 hPa 0,0 l/m 5,6 km/h (1 Bft) 0 min 0 min 8,4 km/h (2 Bft)
02.01.2012 10:04 15,6 C 7,4 C 0,0 UV-I 0,0 C 62 % 92 % 0 % 1007,6 hPa 0,0 l/m 5,2 km/h (1 Bft) 0 min 0 min 0,0 km/h (0 Bft)
02.01.2012 10:06 15,6 C 7,4 C 0,0 UV-I 0,0 C 62 % 92 % 0 % 1007,6 hPa 0,0 l/m 4,4 km/h (1 Bft) 0 min 0 min 6,0 km/h (2 Bft)
02.01.2012 10:08 15,6 C 7,5 C 0,0 UV-I 0,0 C 62 % 92 % 0 % 1007,6 hPa 0,0 l/m 4,0 km/h (1 Bft) 0 min 0 min 6,8 km/h (2 Bft)
02.01.2012 10:10 15,6 C 7,4 C 0,0 UV-I 0,0 C 62 % 92 % 0 % 1007,6 hPa 0,0 l/m 4,4 km/h (1 Bft) 0 min 0 min 8,8 km/h (2 Bft)
02.01.2012 10:12 15,6 C 7,5 C 0,0 UV-I 0,0 C 62 % 92 % 0 % 1007,6 hPa 0,0 l/m 3,6 km/h (1 Bft) 0 min 0 min 8,8 km/h (2 Bft)
02.01.2012 10:14 15,6 C 7,4 C 0,0 UV-I 0,0 C 62 % 92 % 0 % 1007,6 hPa 0,0 l/m 3,2 km/h (1 Bft) 0 min 0 min 10,0 km/h (2 Bft)
02.01.2012 10:16 15,6 C 7,4 C 0,0 UV-I 0,0 C 62 % 92 % 0 % 1007,6 hPa 0,0 l/m 4,0 km/h (1 Bft) 0 min 0 min 10,0 km/h (2 Bft)
02.01.2012 10:18 15,7 C 7,5 C 0,0 UV-I 0,0 C 62 % 92 % 0 % 1007,6 hPa 0,0 l/m 4,4 km/h (1 Bft) 0 min 0 min 6,0 km/h (2 Bft)
02.01.2012 10:20 15,6 C 7,5 C 0,0 UV-I 0,0 C 62 % 92 % 0 % 1007,6 hPa 0,0 l/m 3,6 km/h (1 Bft) 0 min 0 min 4,0 km/h (1 Bft)
02.01.2012 10:22 15,6 C 7,5 C 0,0 UV-I 0,0 C 62 % 91 % 0 % 1007,6 hPa 0,0 l/m 3,6 km/h (1 Bft) 0 min 0 min 16,1 km/h (3 Bft)
02.01.2012 10:24 15,7 C 7,4 C 0,0 UV-I 0,0 C 62 % 92 % 0 % 1007,8 hPa 0,0 l/m 3,6 km/h (1 Bft) 0 min 0 min 16,1 km/h (3 Bft)
02.01.2012 10:26 15,7 C 7,5 C 0,0 UV-I 0,0 C 62 % 91 % 0 % 1007,8 hPa 0,0 l/m 3,2 km/h (1 Bft) 0 min 0 min 7,2 km/h (2 Bft)
02.01.2012 10:28 15,7 C 7,5 C 0,0 UV-I 0,0 C 61 % 92 % 0 % 1007,8 hPa 0,0 l/m 2,8 km/h (1 Bft) 0 min 0 min 5,2 km/h (1 Bft)
02.01.2012 10:30 15,7 C 7,5 C 0,0 UV-I 0,0 C 61 % 91 % 0 % 1007,8 hPa 0,0 l/m 2,8 km/h (1 Bft) 0 min 0 min 5,2 km/h (1 Bft)
02.01.2012 10:32 15,7 C 7,5 C 0,0 UV-I 0,0 C 61 % 91 % 0 % 1007,8 hPa 0,0 l/m 2,8 km/h (1 Bft) 0 min 0 min 4,4 km/h (1 Bft)
02.01.2012 10:34 15,7 C 7,5 C 0,0 UV-I 0,0 C 61 % 91 % 0 % 1007,8 hPa 0,0 l/m 2,8 km/h (1 Bft) 0 min 0 min 4,4 km/h (1 Bft)
02.01.2012 10:36 15,7 C 7,5 C 0,0 UV-I 0,0 C 61 % 91 % 0 % 1007,8 hPa 0,0 l/m 2,0 km/h (1 Bft) 0 min 0 min 0,0 km/h (0 Bft)
02.01.2012 10:38 15,7 C 7,5 C 0,0 UV-I 0,0 C 61 % 91 % 0 % 1007,8 hPa 0,0 l/m 2,0 km/h (1 Bft) 0 min 0 min 5,2 km/h (1 Bft)
02.01.2012 10:40 15,7 C 7,5 C 0,0 UV-I 0,0 C 61 % 91 % 0 % 1007,8 hPa 0,0 l/m 2,0 km/h (1 Bft) 0 min 0 min 5,2 km/h (1 Bft)
02.01.2012 10:42 15,6 C 7,6 C 0,0 UV-I 0,0 C 61 % 91 % 0 % 1007,8 hPa 0,0 l/m 2,4 km/h (1 Bft) 0 min 0 min 6,4 km/h (2 Bft)
02.01.2012 10:44 15,7 C 7,6 C 0,0 UV-I 0,0 C 61 % 91 % 0 % 1008,2 hPa 0,0 l/m 1,6 km/h (1 Bft) 0 min 0 min 6,4 km/h (2 Bft)
02.01.2012 10:46 15,7 C 7,7 C 0,0 UV-I 0,0 C 61 % 91 % 0 % 1008,2 hPa 0,0 l/m 2,0 km/h (1 Bft) 0 min 0 min 7,6 km/h (2 Bft)
02.01.2012 10:48 15,7 C 7,7 C 0,0 UV-I 0,0 C 61 % 91 % 0 % 1008,2 hPa 0,0 l/m 1,6 km/h (1 Bft) 0 min 0 min 7,6 km/h (2 Bft)
02.01.2012 10:50 15,7 C 7,7 C 0,0 UV-I 0,0 C 61 % 91 % 0 % 1008,2 hPa 0,0 l/m 1,2 km/h (1 Bft) 0 min 0 min 0,0 km/h (0 Bft)
02.01.2012 10:52 15,6 C 7,6 C 0,0 UV-I 0,0 C 61 % 91 % 0 % 1008,2 hPa 0,0 l/m 1,6 km/h (1 Bft) 0 min 0 min 11,2 km/h (2 Bft)
02.01.2012 10:54 15,6 C 7,6 C 0,0 UV-I 0,0 C 61 % 91 % 0 % 1008,2 hPa 0,0 l/m 2,0 km/h (1 Bft) 0 min 0 min 11,2 km/h (2 Bft)
02.01.2012 10:56 15,6 C 7,6 C 0,0 UV-I 0,0 C 61 % 91 % 0 % 1008,2 hPa 0,0 l/m 2,0 km/h (1 Bft) 0 min 0 min 0,0 km/h (0 Bft)
02.01.2012 10:58 15,6 C 7,7 C 0,0 UV-I 0,0 C 61 % 91 % 0 % 1008,2 hPa 0,0 l/m 2,4 km/h (1 Bft) 0 min 0 min 6,0 km/h (2 Bft)
02.01.2012 11:00 15,6 C 7,6 C 0,0 UV-I 0,0 C 61 % 91 % 0 % 1008,2 hPa 0,0 l/m 2,8 km/h (1 Bft) 0 min 0 min 9,2 km/h (2 Bft)
02.01.2012 11:02 15,6 C 7,6 C 0,0 UV-I 0,0 C 61 % 91 % 0 % 1008,2 hPa 0,0 l/m 2,8 km/h (1 Bft) 0 min 0 min 9,2 km/h (2 Bft)
02.01.2012 11:04 15,6 C 7,7 C 0,0 UV-I 0,0 C 61 % 91 % 0 % 1008,2 hPa 0,0 l/m 2,0 km/h (1 Bft) 0 min 0 min 7,6 km/h (2 Bft)
02.01.2012 11:06 15,6 C 7,7 C 0,0 UV-I 0,0 C 61 % 91 % 0 % 1008,2 hPa 0,0 l/m 2,0 km/h (1 Bft) 0 min 0 min 7,6 km/h (2 Bft)
02.01.2012 11:08 15,8 C 7,7 C 0,0 UV-I 0,0 C 61 % 91 % 0 % 1008,2 hPa 0,0 l/m 2,4 km/h (1 Bft) 0 min 0 min 5,6 km/h (1 Bft)
02.01.2012 11:10 15,8 C 7,7 C 0,0 UV-I 0,0 C 61 % 91 % 0 % 1008,2 hPa 0,0 l/m 2,4 km/h (1 Bft) 0 min 0 min 5,6 km/h (1 Bft)
02.01.2012 11:12 15,8 C 7,7 C 0,0 UV-I 0,0 C 61 % 91 % 0 % 1008,2 hPa 0,0 l/m 2,4 km/h (1 Bft) 0 min 0 min 5,6 km/h (1 Bft)
02.01.2012 11:14 15,8 C 7,7 C 0,0 UV-I 0,0 C 61 % 91 % 0 % 1008,2 hPa 0,0 l/m 2,4 km/h (1 Bft) 0 min 0 min 5,6 km/h (1 Bft)
02.01.2012 11:16 15,8 C 7,7 C 0,0 UV-I 0,0 C 61 % 91 % 0 % 1008,2 hPa 0,0 l/m 2,8 km/h (1 Bft) 0 min 0 min 6,4 km/h (2 Bft)
02.01.2012 11:18 15,8 C 7,6 C 0,0 UV-I 0,0 C 61 % 91 % 0 % 1008,2 hPa 0,0 l/m 4,0 km/h (1 Bft) 0 min 0 min 8,8 km/h (2 Bft)
02.01.2012 11:20 15,8 C 7,7 C 0,0 UV-I 0,0 C 61 % 91 % 0 % 1008,2 hPa 0,0 l/m 4,4 km/h (1 Bft) 0 min 0 min 8,8 km/h (2 Bft)
02.01.2012 11:22 15,8 C 7,7 C 0,0 UV-I 0,0 C 61 % 91 % 0 % 1008,2 hPa 0,0 l/m 4,8 km/h (1 Bft) 0 min 0 min 10,0 km/h (2 Bft)
02.01.2012 11:24 15,8 C 7,7 C 0,0 UV-I 0,0 C 61 % 91 % 0 % 1008,1 hPa 0,0 l/m 5,2 km/h (1 Bft) 0 min 0 min 10,0 km/h (2 Bft)
02.01.2012 11:26 15,8 C 7,7 C 0,0 UV-I 0,0 C 61 % 91 % 0 % 1008,1 hPa 0,0 l/m 4,8 km/h (1 Bft) 0 min 0 min 9,6 km/h (2 Bft)
02.01.2012 11:28 15,8 C 7,7 C 0,0 UV-I 0,0 C 61 % 91 % 0 % 1008,1 hPa 0,0 l/m 4,8 km/h (1 Bft) 0 min 0 min 14,9 km/h (3 Bft)
02.01.2012 11:30 15,8 C 7,7 C 0,0 UV-I 0,0 C 61 % 91 % 0 % 1008,1 hPa 0,0 l/m 4,8 km/h (1 Bft) 0 min 0 min 14,9 km/h (3 Bft)
02.01.2012 11:32 15,8 C 7,7 C 0,0 UV-I 0,0 C 61 % 91 % 0 % 1008,1 hPa 0,0 l/m 4,8 km/h (1 Bft) 0 min 0 min 5,6 km/h (1 Bft)
02.01.2012 11:34 15,9 C 7,9 C 0,0 UV-I 0,0 C 61 % 91 % 0 % 1008,1 hPa 0,0 l/m 4,0 km/h (1 Bft) 0 min 0 min 4,4 km/h (1 Bft)
02.01.2012 11:36 15,9 C 7,7 C 0,0 UV-I 0,0 C 60 % 91 % 0 % 1008,1 hPa 0,0 l/m 3,6 km/h (1 Bft) 0 min 0 min 5,2 km/h (1 Bft)
02.01.2012 11:38 15,9 C 7,8 C 0,0 UV-I 0,0 C 60 % 91 % 0 % 1008,1 hPa 0,0 l/m 4,0 km/h (1 Bft) 0 min 0 min 5,2 km/h (1 Bft)
02.01.2012 11:40 15,9 C 7,8 C 0,0 UV-I 0,0 C 60 % 91 % 0 % 1008,1 hPa 0,0 l/m 2,8 km/h (1 Bft) 0 min 0 min 13,7 km/h (3 Bft)
02.01.2012 11:42 15,8 C 7,9 C 0,0 UV-I 0,0 C 60 % 91 % 0 % 1008,1 hPa 0,0 l/m 2,8 km/h (1 Bft) 0 min 0 min 13,7 km/h (3 Bft)
02.01.2012 11:44 15,9 C 7,9 C 0,0 UV-I 0,0 C 60 % 90 % 0 % 1008,8 hPa 0,0 l/m 4,0 km/h (1 Bft) 0 min 0 min 9,2 km/h (2 Bft)
02.01.2012 11:46 15,9 C 7,8 C 0,0 UV-I 0,0 C 60 % 90 % 0 % 1008,8 hPa 0,0 l/m 4,8 km/h (1 Bft) 0 min 0 min 7,2 km/h (2 Bft)
02.01.2012 11:48 15,8 C 7,8 C 0,0 UV-I 0,0 C 60 % 90 % 0 % 1008,8 hPa 0,0 l/m 4,8 km/h (1 Bft) 0 min 0 min 6,4 km/h (2 Bft)
02.01.2012 11:50 15,8 C 7,8 C 0,0 UV-I 0,0 C 60 % 90 % 0 % 1008,8 hPa 0,0 l/m 6,0 km/h (2 Bft) 0 min 0 min 11,2 km/h (2 Bft)
02.01.2012 11:52 16,0 C 7,9 C 0,0 UV-I 0,0 C 60 % 90 % 0 % 1008,8 hPa 0,0 l/m 5,6 km/h (1 Bft) 0 min 0 min 4,4 km/h (1 Bft)
02.01.2012 11:54 15,8 C 7,9 C 0,0 UV-I 0,0 C 60 % 90 % 0 % 1008,8 hPa 0,0 l/m 4,8 km/h (1 Bft) 0 min 0 min 5,2 km/h (1 Bft)
02.01.2012 11:56 16,0 C 7,9 C 0,0 UV-I 0,0 C 60 % 90 % 0 % 1008,8 hPa 0,0 l/m 5,2 km/h (1 Bft) 0 min 0 min 5,2 km/h (1 Bft)
02.01.2012 11:58 15,8 C 7,9 C 0,0 UV-I 0,0 C 60 % 90 % 0 % 1008,8 hPa 0,0 l/m 5,2 km/h (1 Bft) 0 min 0 min 7,6 km/h (2 Bft)
02.01.2012 12:00 16,0 C 7,9 C 0,0 UV-I 0,0 C 60 % 90 % 0 % 1008,8 hPa 0,0 l/m 4,8 km/h (1 Bft) 0 min 0 min 7,6 km/h (2 Bft)
02.01.2012 12:02 16,0 C 8,0 C 0,0 UV-I 0,0 C 60 % 90 % 0 % 1008,8 hPa 0,0 l/m 4,8 km/h (1 Bft) 0 min 0 min 12,8 km/h (3 Bft)
02.01.2012 12:04 16,0 C 8,0 C 0,0 UV-I 0,0 C 60 % 89 % 0 % 1008,6 hPa 0,0 l/m 5,6 km/h (1 Bft) 0 min 0 min 8,0 km/h (2 Bft)
02.01.2012 12:06 16,0 C 8,0 C 0,0 UV-I 0,0 C 60 % 89 % 0 % 1008,6 hPa 0,0 l/m 6,8 km/h (2 Bft) 0 min 0 min 9,2 km/h (2 Bft)
02.01.2012 12:08 16,0 C 8,0 C 0,0 UV-I 0,0 C 60 % 89 % 0 % 1008,6 hPa 0,0 l/m 6,4 km/h (2 Bft) 0 min 0 min 9,2 km/h (2 Bft)
02.01.2012 12:10 16,0 C 8,0 C 0,0 UV-I 0,0 C 60 % 89 % 0 % 1008,6 hPa 0,0 l/m 6,8 km/h (2 Bft) 0 min 0 min 18,5 km/h (3 Bft)
02.01.2012 12:12 15,9 C 8,0 C 0,0 UV-I 0,0 C 59 % 89 % 0 % 1008,6 hPa 0,0 l/m 7,6 km/h (2 Bft) 0 min 0 min 18,5 km/h (3 Bft)
02.01.2012 12:14 15,9 C 8,0 C 0,0 UV-I 0,0 C 59 % 89 % 0 % 1008,6 hPa 0,0 l/m 8,0 km/h (2 Bft) 0 min 0 min 17,7 km/h (3 Bft)
02.01.2012 12:16 15,9 C 8,0 C 0,0 UV-I 0,0 C 59 % 89 % 0 % 1008,6 hPa 0,0 l/m 8,8 km/h (2 Bft) 0 min 0 min 15,7 km/h (3 Bft)
02.01.2012 12:18 15,9 C 8,0 C 0,0 UV-I 0,0 C 59 % 89 % 0 % 1008,6 hPa 0,0 l/m 8,4 km/h (2 Bft) 0 min 0 min 12,0 km/h (2 Bft)
02.01.2012 12:20 16,1 C 8,1 C 0,0 UV-I 0,0 C 59 % 89 % 0 % 1008,6 hPa 0,0 l/m 8,8 km/h (2 Bft) 0 min 0 min 7,2 km/h (2 Bft)
02.01.2012 12:22 16,1 C 8,0 C 0,0 UV-I 0,2 C 59 % 89 % 6 % 1008,6 hPa 0,0 l/m 8,4 km/h (2 Bft) 0 min 0 min 22,1 km/h (4 Bft)
02.01.2012 12:24 16,1 C 8,1 C 0,1 UV-I 0,2 C 59 % 89 % 6 % 1008,7 hPa 0,0 l/m 8,8 km/h (2 Bft) 0 min 0 min 22,1 km/h (4 Bft)
02.01.2012 12:26 16,1 C 8,1 C 0,1 UV-I 0,4 C 59 % 89 % 11 % 1008,7 hPa 0,0 l/m 8,4 km/h (2 Bft) 0 min 0 min 7,6 km/h (2 Bft)
02.01.2012 12:28 16,1 C 8,1 C 0,1 UV-I 0,5 C 59 % 89 % 14 % 1008,7 hPa 0,0 l/m 7,6 km/h (2 Bft) 0 min 0 min 7,6 km/h (2 Bft)
02.01.2012 12:30 16,1 C 8,1 C 0,1 UV-I 0,7 C 59 % 89 % 20 % 1008,7 hPa 0,0 l/m 6,4 km/h (2 Bft) 0 min 0 min 7,2 km/h (2 Bft)
02.01.2012 12:32 16,1 C 8,3 C 0,1 UV-I 0,6 C 59 % 89 % 17 % 1008,7 hPa 0,0 l/m 6,4 km/h (2 Bft) 0 min 0 min 14,1 km/h (3 Bft)
02.01.2012 12:34 16,1 C 8,3 C 0,0 UV-I 0,7 C 59 % 89 % 20 % 1008,7 hPa 0,0 l/m 6,0 km/h (2 Bft) 0 min 0 min 14,9 km/h (3 Bft)
02.01.2012 12:36 16,1 C 8,3 C 0,0 UV-I 0,7 C 59 % 89 % 20 % 1008,7 hPa 0,0 l/m 6,0 km/h (2 Bft) 0 min 0 min 17,3 km/h (3 Bft)
02.01.2012 12:38 16,2 C 8,3 C 0,1 UV-I 0,7 C 59 % 89 % 20 % 1008,7 hPa 0,1 l/m 6,4 km/h (2 Bft) 0 min 0 min 17,3 km/h (3 Bft)
02.01.2012 12:40 16,2 C 8,2 C 0,1 UV-I 0,8 C 59 % 89 % 23 % 1008,7 hPa 0,0 l/m 6,4 km/h (2 Bft) 0 min 0 min 9,6 km/h (2 Bft)
02.01.2012 12:42 16,2 C 8,2 C 0,1 UV-I 0,8 C 59 % 89 % 23 % 1008,7 hPa 0,0 l/m 6,8 km/h (2 Bft) 0 min 0 min 8,8 km/h (2 Bft)
02.01.2012 12:44 16,2 C 8,3 C 0,2 UV-I 0,7 C 59 % 89 % 20 % 1009,0 hPa 0,0 l/m 6,4 km/h (2 Bft) 0 min 0 min 11,6 km/h (2 Bft)
02.01.2012 12:46 16,2 C 8,3 C 0,2 UV-I 0,7 C 58 % 89 % 20 % 1009,0 hPa 0,0 l/m 7,6 km/h (2 Bft) 0 min 0 min 14,5 km/h (3 Bft)
02.01.2012 12:48 16,2 C 8,3 C 0,2 UV-I 0,7 C 58 % 89 % 20 % 1009,0 hPa 0,0 l/m 6,4 km/h (2 Bft) 0 min 0 min 16,1 km/h (3 Bft)
02.01.2012 12:50 16,2 C 8,3 C 0,2 UV-I 0,5 C 58 % 89 % 14 % 1009,0 hPa 0,0 l/m 6,8 km/h (2 Bft) 0 min 0 min 16,1 km/h (3 Bft)
02.01.2012 12:52 16,2 C 8,3 C 0,2 UV-I 0,5 C 58 % 89 % 14 % 1009,0 hPa 0,0 l/m 7,2 km/h (2 Bft) 0 min 0 min 8,8 km/h (2 Bft)
02.01.2012 12:54 16,2 C 8,3 C 0,2 UV-I 0,4 C 58 % 89 % 11 % 1009,0 hPa 0,0 l/m 7,6 km/h (2 Bft) 0 min 0 min 11,6 km/h (2 Bft)
02.01.2012 12:56 16,2 C 8,3 C 0,2 UV-I 0,3 C 58 % 89 % 9 % 1009,0 hPa 0,0 l/m 7,6 km/h (2 Bft) 0 min 0 min 11,6 km/h (2 Bft)
02.01.2012 12:58 16,2 C 8,4 C 0,0 UV-I 0,2 C 58 % 89 % 6 % 1009,0 hPa 0,0 l/m 6,8 km/h (2 Bft) 0 min 0 min 11,6 km/h (2 Bft)
02.01.2012 13:00 16,2 C 8,4 C 0,0 UV-I 0,1 C 58 % 89 % 3 % 1009,0 hPa 0,0 l/m 7,6 km/h (2 Bft) 0 min 0 min 10,8 km/h (2 Bft)
02.01.2012 13:02 16,2 C 8,3 C 0,0 UV-I 0,2 C 58 % 89 % 6 % 1009,0 hPa 0,0 l/m 7,2 km/h (2 Bft) 0 min 0 min 10,4 km/h (2 Bft)
02.01.2012 13:04 16,2 C 8,3 C 0,0 UV-I 0,2 C 58 % 89 % 6 % 1009,4 hPa 0,0 l/m 6,4 km/h (2 Bft) 0 min 0 min 0,0 km/h (0 Bft)
02.01.2012 13:06 16,2 C 8,4 C 0,0 UV-I 0,0 C 58 % 89 % 0 % 1009,4 hPa 0,0 l/m 5,6 km/h (1 Bft) 0 min 0 min 0,0 km/h (0 Bft)
02.01.2012 13:08 16,2 C 8,4 C 0,0 UV-I 0,0 C 58 % 89 % 0 % 1009,4 hPa 0,0 l/m 4,8 km/h (1 Bft) 0 min 0 min 6,0 km/h (2 Bft)
02.01.2012 13:10 16,2 C 8,4 C 0,0 UV-I 0,1 C 58 % 89 % 3 % 1009,4 hPa 0,0 l/m 4,8 km/h (1 Bft) 0 min 0 min 14,5 km/h (3 Bft)
02.01.2012 13:12 16,2 C 8,4 C 0,0 UV-I 0,1 C 58 % 89 % 3 % 1009,4 hPa 0,0 l/m 4,8 km/h (1 Bft) 0 min 0 min 14,5 km/h (3 Bft)
02.01.2012 13:14 16,2 C 8,5 C 0,0 UV-I 0,0 C 58 % 89 % 0 % 1009,4 hPa 0,0 l/m 5,2 km/h (1 Bft) 0 min 0 min 16,5 km/h (3 Bft)
02.01.2012 13:16 16,2 C 8,4 C 0,0 UV-I 0,1 C 58 % 89 % 3 % 1009,4 hPa 0,0 l/m 5,2 km/h (1 Bft) 0 min 0 min 16,5 km/h (3 Bft)
02.01.2012 13:18 16,2 C 8,5 C 0,1 UV-I 0,0 C 58 % 88 % 0 % 1009,4 hPa 0,0 l/m 6,4 km/h (2 Bft) 0 min 0 min 8,4 km/h (2 Bft)
02.01.2012 13:20 16,2 C 8,4 C 0,1 UV-I 0,1 C 58 % 89 % 3 % 1009,4 hPa 0,0 l/m 6,8 km/h (2 Bft) 0 min 0 min 8,4 km/h (2 Bft)
02.01.2012 13:22 16,2 C 8,4 C 0,1 UV-I 0,2 C 58 % 89 % 6 % 1009,4 hPa 0,0 l/m 6,4 km/h (2 Bft) 0 min 0 min 7,2 km/h (2 Bft)
02.01.2012 13:24 16,2 C 8,5 C 0,1 UV-I 0,2 C 58 % 89 % 6 % 1009,1 hPa 0,0 l/m 5,6 km/h (1 Bft) 0 min 0 min 8,0 km/h (2 Bft)
02.01.2012 13:26 16,2 C 8,5 C 0,1 UV-I 0,2 C 58 % 89 % 6 % 1009,1 hPa 0,0 l/m 5,6 km/h (1 Bft) 0 min 0 min 8,0 km/h (2 Bft)
02.01.2012 13:28 16,3 C 8,5 C 0,1 UV-I 0,2 C 58 % 89 % 6 % 1009,1 hPa 0,0 l/m 6,0 km/h (2 Bft) 0 min 0 min 7,6 km/h (2 Bft)
02.01.2012 13:30 16,3 C 8,5 C 0,1 UV-I 0,2 C 58 % 88 % 6 % 1009,1 hPa 0,0 l/m 7,2 km/h (2 Bft) 0 min 0 min 19,3 km/h (3 Bft)
02.01.2012 13:32 16,3 C 8,5 C 0,1 UV-I 0,1 C 58 % 88 % 3 % 1009,1 hPa 0,0 l/m 7,2 km/h (2 Bft) 0 min 0 min 19,3 km/h (3 Bft)
02.01.2012 13:34 16,3 C 8,5 C 0,1 UV-I 0,1 C 58 % 88 % 3 % 1009,1 hPa 0,0 l/m 7,6 km/h (2 Bft) 0 min 0 min 10,8 km/h (2 Bft)
02.01.2012 13:36 16,3 C 8,5 C 0,1 UV-I 0,0 C 58 % 88 % 0 % 1009,1 hPa 0,0 l/m 8,0 km/h (2 Bft) 0 min 0 min 10,8 km/h (2 Bft)
02.01.2012 13:38 16,3 C 8,5 C 0,1 UV-I 0,1 C 58 % 88 % 3 % 1009,1 hPa 0,0 l/m 7,2 km/h (2 Bft) 0 min 0 min 8,4 km/h (2 Bft)
02.01.2012 13:40 16,3 C 8,5 C 0,1 UV-I 0,1 C 58 % 88 % 3 % 1009,1 hPa 0,0 l/m 6,4 km/h (2 Bft) 0 min 0 min 6,8 km/h (2 Bft)
02.01.2012 13:42 16,3 C 8,7 C 0,1 UV-I 0,0 C 58 % 88 % 0 % 1009,1 hPa 0,0 l/m 6,0 km/h (2 Bft) 0 min 0 min 8,0 km/h (2 Bft)
02.01.2012 13:44 16,3 C 8,7 C 0,0 UV-I 0,0 C 58 % 88 % 0 % 1009,4 hPa 0,0 l/m 6,0 km/h (2 Bft) 0 min 0 min 8,0 km/h (2 Bft)
02.01.2012 13:46 16,3 C 8,6 C 0,0 UV-I 0,0 C 58 % 88 % 0 % 1009,4 hPa 0,0 l/m 6,0 km/h (2 Bft) 0 min 0 min 6,0 km/h (2 Bft)
02.01.2012 13:48 16,3 C 8,7 C 0,0 UV-I 0,0 C 58 % 88 % 0 % 1009,4 hPa 0,0 l/m 6,0 km/h (2 Bft) 0 min 0 min 11,2 km/h (2 Bft)
02.01.2012 13:50 16,3 C 8,6 C 0,0 UV-I 0,0 C 58 % 88 % 0 % 1009,4 hPa 0,0 l/m 6,8 km/h (2 Bft) 0 min 0 min 11,2 km/h (2 Bft)
02.01.2012 13:52 16,3 C 8,5 C 0,0 UV-I 0,0 C 58 % 88 % 0 % 1009,4 hPa 0,0 l/m 7,2 km/h (2 Bft) 0 min 0 min 13,7 km/h (3 Bft)
02.01.2012 13:54 16,3 C 8,5 C 0,0 UV-I 0,0 C 58 % 88 % 0 % 1009,4 hPa 0,0 l/m 7,6 km/h (2 Bft) 0 min 0 min 13,7 km/h (3 Bft)
02.01.2012 13:56 16,3 C 8,6 C 0,0 UV-I 0,0 C 58 % 88 % 0 % 1009,4 hPa 0,0 l/m 7,6 km/h (2 Bft) 0 min 0 min 8,8 km/h (2 Bft)
02.01.2012 13:58 16,3 C 8,5 C 0,0 UV-I 0,0 C 58 % 88 % 0 % 1009,4 hPa 0,0 l/m 8,0 km/h (2 Bft) 0 min 0 min 8,8 km/h (2 Bft)
02.01.2012 14:00 16,3 C 8,5 C 0,0 UV-I 0,0 C 58 % 88 % 0 % 1009,4 hPa 0,0 l/m 8,0 km/h (2 Bft) 0 min 0 min 9,2 km/h (2 Bft)
02.01.2012 14:02 16,2 C 8,5 C 0,0 UV-I 0,0 C 58 % 88 % 0 % 1009,4 hPa 0,0 l/m 7,2 km/h (2 Bft) 0 min 0 min 9,2 km/h (2 Bft)
02.01.2012 14:04 16,3 C 8,5 C 0,0 UV-I 0,0 C 58 % 88 % 0 % 1009,9 hPa 0,0 l/m 6,8 km/h (2 Bft) 0 min 0 min 10,4 km/h (2 Bft)
02.01.2012 14:06 16,2 C 8,5 C 0,0 UV-I 0,0 C 58 % 88 % 0 % 1009,9 hPa 0,0 l/m 6,4 km/h (2 Bft) 0 min 0 min 10,4 km/h (2 Bft)
02.01.2012 14:08 16,3 C 8,6 C 0,0 UV-I 0,0 C 58 % 88 % 0 % 1009,9 hPa 0,0 l/m 6,4 km/h (2 Bft) 0 min 0 min 12,4 km/h (3 Bft)
02.01.2012 14:10 16,3 C 8,6 C 0,0 UV-I 0,0 C 58 % 88 % 0 % 1009,9 hPa 0,0 l/m 6,4 km/h (2 Bft) 0 min 0 min 12,4 km/h (3 Bft)
02.01.2012 14:12 16,3 C 8,7 C 0,0 UV-I 0,0 C 58 % 88 % 0 % 1009,9 hPa 0,0 l/m 6,8 km/h (2 Bft) 0 min 0 min 17,7 km/h (3 Bft)
02.01.2012 14:14 16,2 C 8,7 C 0,0 UV-I 0,0 C 58 % 88 % 0 % 1009,9 hPa 0,0 l/m 6,8 km/h (2 Bft) 0 min 0 min 17,7 km/h (3 Bft)
02.01.2012 14:16 16,3 C 8,7 C 0,0 UV-I 0,0 C 58 % 88 % 0 % 1009,9 hPa 0,0 l/m 6,4 km/h (2 Bft) 0 min 0 min 7,6 km/h (2 Bft)
02.01.2012 14:18 16,3 C 8,6 C 0,0 UV-I 0,0 C 58 % 88 % 0 % 1009,9 hPa 0,0 l/m 6,4 km/h (2 Bft) 0 min 0 min 6,4 km/h (2 Bft)
02.01.2012 14:20 16,3 C 8,6 C 0,0 UV-I 0,0 C 58 % 88 % 0 % 1009,9 hPa 0,0 l/m 6,4 km/h (2 Bft) 0 min 0 min 9,2 km/h (2 Bft)
02.01.2012 14:22 16,2 C 8,7 C 0,0 UV-I 0,0 C 58 % 88 % 0 % 1009,9 hPa 0,0 l/m 6,0 km/h (2 Bft) 0 min 0 min 10,4 km/h (2 Bft)
02.01.2012 14:24 16,3 C 8,7 C 0,0 UV-I 0,0 C 58 % 88 % 0 % 1010,0 hPa 0,0 l/m 6,0 km/h (2 Bft) 0 min 0 min 12,0 km/h (2 Bft)
02.01.2012 14:26 16,3 C 8,7 C 0,0 UV-I 0,0 C 58 % 88 % 0 % 1010,0 hPa 0,0 l/m 6,0 km/h (2 Bft) 0 min 0 min 12,0 km/h (2 Bft)
02.01.2012 14:28 16,2 C 8,7 C 0,0 UV-I 0,0 C 58 % 88 % 0 % 1010,0 hPa 0,0 l/m 6,8 km/h (2 Bft) 0 min 0 min 11,2 km/h (2 Bft)
02.01.2012 14:30 16,3 C 8,8 C 0,0 UV-I 0,0 C 58 % 88 % 0 % 1010,0 hPa 0,0 l/m 6,8 km/h (2 Bft) 0 min 0 min 8,8 km/h (2 Bft)
02.01.2012 14:32 16,3 C 8,7 C 0,0 UV-I 0,0 C 58 % 88 % 0 % 1010,0 hPa 0,0 l/m 7,2 km/h (2 Bft) 0 min 0 min 12,0 km/h (2 Bft)
02.01.2012 14:34 16,3 C 8,7 C 0,0 UV-I 0,0 C 58 % 88 % 0 % 1010,0 hPa 0,0 l/m 8,0 km/h (2 Bft) 0 min 0 min 12,0 km/h (2 Bft)
02.01.2012 14:36 16,3 C 8,7 C 0,0 UV-I 0,0 C 58 % 88 % 0 % 1010,0 hPa 0,0 l/m 8,0 km/h (2 Bft) 0 min 0 min 12,0 km/h (2 Bft)
02.01.2012 14:38 16,3 C 8,7 C 0,0 UV-I 0,0 C 58 % 88 % 0 % 1010,0 hPa 0,0 l/m 8,0 km/h (2 Bft) 0 min 0 min 20,5 km/h (4 Bft)
02.01.2012 14:40 16,3 C 8,7 C 0,0 UV-I 0,0 C 58 % 87 % 0 % 1010,0 hPa 0,0 l/m 8,0 km/h (2 Bft) 0 min 0 min 20,5 km/h (4 Bft)
02.01.2012 14:42 16,2 C 8,7 C 0,0 UV-I 0,0 C 58 % 87 % 0 % 1010,0 hPa 0,0 l/m 8,4 km/h (2 Bft) 0 min 0 min 9,6 km/h (2 Bft)
02.01.2012 14:44 16,3 C 8,7 C 0,0 UV-I 0,0 C 58 % 87 % 0 % 1010,1 hPa 0,0 l/m 7,6 km/h (2 Bft) 0 min 0 min 12,4 km/h (3 Bft)
02.01.2012 14:46 16,3 C 8,7 C 0,0 UV-I 0,0 C 57 % 87 % 0 % 1010,1 hPa 0,0 l/m 7,6 km/h (2 Bft) 0 min 0 min 12,4 km/h (3 Bft)
02.01.2012 14:48 16,3 C 8,7 C 0,0 UV-I 0,0 C 57 % 87 % 0 % 1010,1 hPa 0,0 l/m 8,0 km/h (2 Bft) 0 min 0 min 10,8 km/h (2 Bft)
02.01.2012 14:50 16,2 C 8,7 C 0,0 UV-I 0,0 C 57 % 87 % 0 % 1010,1 hPa 0,0 l/m 7,2 km/h (2 Bft) 0 min 0 min 10,8 km/h (2 Bft)
02.01.2012 14:52 16,2 C 8,7 C 0,0 UV-I 0,0 C 57 % 87 % 0 % 1010,1 hPa 0,0 l/m 7,6 km/h (2 Bft) 0 min 0 min 9,2 km/h (2 Bft)
02.01.2012 14:54 16,2 C 8,7 C 0,0 UV-I 0,0 C 57 % 87 % 0 % 1010,1 hPa 0,0 l/m 8,0 km/h (2 Bft) 0 min 0 min 9,2 km/h (2 Bft)
02.01.2012 14:56 16,2 C 8,8 C 0,0 UV-I 0,0 C 58 % 87 % 0 % 1010,1 hPa 0,0 l/m 7,6 km/h (2 Bft) 0 min 0 min 10,4 km/h (2 Bft)
02.01.2012 14:58 16,2 C 8,7 C 0,0 UV-I 0,0 C 57 % 87 % 0 % 1010,1 hPa 0,0 l/m 7,6 km/h (2 Bft) 0 min 0 min 10,4 km/h (2 Bft)
02.01.2012 15:00 16,2 C 8,7 C 0,0 UV-I 0,0 C 57 % 87 % 0 % 1010,1 hPa 0,0 l/m 6,8 km/h (2 Bft) 0 min 0 min 4,8 km/h (1 Bft)
02.01.2012 15:02 16,2 C 8,7 C 0,0 UV-I 0,0 C 57 % 87 % 0 % 1010,1 hPa 0,0 l/m 6,8 km/h (2 Bft) 0 min 0 min 11,6 km/h (2 Bft)
02.01.2012 15:04 16,2 C 8,7 C 0,0 UV-I 0,0 C 57 % 87 % 0 % 1010,4 hPa 0,0 l/m 5,6 km/h (1 Bft) 0 min 0 min 0,0 km/h (0 Bft)
02.01.2012 15:06 16,2 C 8,7 C 0,0 UV-I 0,0 C 57 % 87 % 0 % 1010,4 hPa 0,0 l/m 5,2 km/h (1 Bft) 0 min 0 min 5,6 km/h (1 Bft)
02.01.2012 15:08 16,2 C 8,7 C 0,0 UV-I 0,0 C 57 % 87 % 0 % 1010,4 hPa 0,0 l/m 4,8 km/h (1 Bft) 0 min 0 min 8,0 km/h (2 Bft)
02.01.2012 15:10 16,1 C 8,7 C 0,0 UV-I 0,0 C 58 % 87 % 0 % 1010,4 hPa 0,0 l/m 5,2 km/h (1 Bft) 0 min 0 min 10,8 km/h (2 Bft)
02.01.2012 15:12 16,2 C 8,7 C 0,0 UV-I 0,0 C 58 % 87 % 0 % 1010,4 hPa 0,0 l/m 5,6 km/h (1 Bft) 0 min 0 min 10,8 km/h (2 Bft)
02.01.2012 15:14 16,1 C 8,7 C 0,0 UV-I 0,0 C 58 % 87 % 0 % 1010,4 hPa 0,0 l/m 5,2 km/h (1 Bft) 0 min 0 min 9,2 km/h (2 Bft)
02.01.2012 15:16 16,1 C 8,7 C 0,0 UV-I 0,0 C 58 % 87 % 0 % 1010,4 hPa 0,0 l/m 5,6 km/h (1 Bft) 0 min 0 min 9,2 km/h (2 Bft)
02.01.2012 15:18 16,1 C 8,7 C 0,0 UV-I 0,0 C 58 % 87 % 0 % 1010,4 hPa 0,0 l/m 6,0 km/h (2 Bft) 0 min 0 min 14,5 km/h (3 Bft)
02.01.2012 15:20 16,1 C 8,7 C 0,0 UV-I 0,0 C 57 % 87 % 0 % 1010,4 hPa 0,0 l/m 6,0 km/h (2 Bft) 0 min 0 min 18,5 km/h (3 Bft)
02.01.2012 15:22 16,1 C 8,8 C 0,0 UV-I 0,0 C 57 % 87 % 0 % 1010,4 hPa 0,0 l/m 5,6 km/h (1 Bft) 0 min 0 min 18,5 km/h (3 Bft)
02.01.2012 15:24 16,1 C 8,7 C 0,0 UV-I 0,0 C 57 % 87 % 0 % 1010,5 hPa 0,0 l/m 6,0 km/h (2 Bft) 0 min 0 min 12,0 km/h (2 Bft)
02.01.2012 15:26 16,1 C 8,8 C 0,0 UV-I 0,0 C 57 % 87 % 0 % 1010,5 hPa 0,0 l/m 6,0 km/h (2 Bft) 0 min 0 min 12,0 km/h (2 Bft)
02.01.2012 15:28 16,1 C 8,8 C 0,0 UV-I 0,0 C 57 % 87 % 0 % 1010,5 hPa 0,0 l/m 6,0 km/h (2 Bft) 0 min 0 min 8,4 km/h (2 Bft)
02.01.2012 15:30 16,1 C 8,8 C 0,0 UV-I 0,0 C 57 % 86 % 0 % 1010,5 hPa 0,0 l/m 5,6 km/h (1 Bft) 0 min 0 min 7,2 km/h (2 Bft)
02.01.2012 15:32 16,1 C 8,8 C 0,0 UV-I 0,0 C 57 % 87 % 0 % 1010,5 hPa 0,0 l/m 5,2 km/h (1 Bft) 0 min 0 min 6,8 km/h (2 Bft)
02.01.2012 15:34 16,1 C 8,8 C 0,0 UV-I 0,0 C 57 % 87 % 0 % 1010,5 hPa 0,0 l/m 5,2 km/h (1 Bft) 0 min 0 min 8,0 km/h (2 Bft)
02.01.2012 15:36 16,1 C 8,7 C 0,0 UV-I 0,0 C 57 % 86 % 0 % 1010,5 hPa 0,0 l/m 5,2 km/h (1 Bft) 0 min 0 min 15,3 km/h (3 Bft)
02.01.2012 15:38 16,1 C 8,7 C 0,0 UV-I 0,0 C 57 % 86 % 0 % 1010,5 hPa 0,0 l/m 6,0 km/h (2 Bft) 0 min 0 min 15,3 km/h (3 Bft)
02.01.2012 15:40 16,1 C 8,7 C 0,0 UV-I 0,0 C 57 % 86 % 0 % 1010,5 hPa 0,0 l/m 5,2 km/h (1 Bft) 0 min 0 min 12,4 km/h (3 Bft)
02.01.2012 15:42 16,1 C 8,7 C 0,0 UV-I 0,0 C 57 % 86 % 0 % 1010,5 hPa 0,0 l/m 6,4 km/h (2 Bft) 0 min 0 min 7,6 km/h (2 Bft)
02.01.2012 15:44 16,1 C 8,7 C 0,0 UV-I 0,0 C 57 % 86 % 0 % 1011,1 hPa 0,0 l/m 6,8 km/h (2 Bft) 0 min 0 min 9,6 km/h (2 Bft)
02.01.2012 15:46 16,1 C 8,7 C 0,0 UV-I 0,0 C 57 % 86 % 0 % 1011,1 hPa 0,0 l/m 6,4 km/h (2 Bft) 0 min 0 min 9,6 km/h (2 Bft)
02.01.2012 15:48 16,1 C 8,6 C 0,0 UV-I 0,0 C 57 % 86 % 0 % 1011,1 hPa 0,0 l/m 5,6 km/h (1 Bft) 0 min 0 min 6,4 km/h (2 Bft)
02.01.2012 15:50 16,1 C 8,6 C 0,0 UV-I 0,0 C 57 % 86 % 0 % 1011,1 hPa 0,0 l/m 4,8 km/h (1 Bft) 0 min 0 min 6,4 km/h (2 Bft)
02.01.2012 15:52 16,1 C 8,7 C 0,0 UV-I 0,0 C 57 % 86 % 0 % 1011,1 hPa 0,0 l/m 6,4 km/h (2 Bft) 0 min 0 min 16,9 km/h (3 Bft)
02.01.2012 15:54 16,1 C 8,7 C 0,0 UV-I 0,0 C 57 % 86 % 0 % 1011,1 hPa 0,0 l/m 6,0 km/h (2 Bft) 0 min 0 min 16,9 km/h (3 Bft)
02.01.2012 15:56 15,9 C 8,7 C 0,0 UV-I 0,0 C 57 % 86 % 0 % 1011,1 hPa 0,0 l/m 5,2 km/h (1 Bft) 0 min 0 min 7,2 km/h (2 Bft)
02.01.2012 15:58 15,9 C 8,7 C 0,0 UV-I 0,0 C 57 % 86 % 0 % 1011,1 hPa 0,0 l/m 4,8 km/h (1 Bft) 0 min 0 min 7,2 km/h (2 Bft)
02.01.2012 16:00 15,9 C 8,7 C 0,0 UV-I 0,0 C 57 % 86 % 0 % 1011,1 hPa 0,0 l/m 4,8 km/h (1 Bft) 0 min 0 min 10,0 km/h (2 Bft)
02.01.2012 16:02 15,9 C 8,7 C 0,0 UV-I 0,0 C 57 % 85 % 0 % 1011,1 hPa 0,0 l/m 4,8 km/h (1 Bft) 0 min 0 min 10,0 km/h (2 Bft)
02.01.2012 16:04 15,9 C 8,6 C 0,0 UV-I 0,0 C 57 % 85 % 0 % 1011,2 hPa 0,0 l/m 4,0 km/h (1 Bft) 0 min 0 min 6,4 km/h (2 Bft)
02.01.2012 16:06 15,9 C 8,5 C 0,0 UV-I 0,0 C 57 % 85 % 0 % 1011,2 hPa 0,0 l/m 4,4 km/h (1 Bft) 0 min 0 min 9,6 km/h (2 Bft)
02.01.2012 16:08 16,0 C 8,5 C 0,0 UV-I 0,0 C 57 % 85 % 0 % 1011,2 hPa 0,0 l/m 4,8 km/h (1 Bft) 0 min 0 min 9,6 km/h (2 Bft)
02.01.2012 16:10 16,0 C 8,5 C 0,0 UV-I 0,0 C 57 % 85 % 0 % 1011,2 hPa 0,0 l/m 6,0 km/h (2 Bft) 0 min 0 min 8,8 km/h (2 Bft)
02.01.2012 16:12 16,0 C 8,5 C 0,0 UV-I 0,0 C 57 % 84 % 0 % 1011,2 hPa 0,0 l/m 6,0 km/h (2 Bft) 0 min 0 min 9,6 km/h (2 Bft)
02.01.2012 16:14 16,0 C 8,5 C 0,0 UV-I 0,0 C 57 % 84 % 0 % 1011,2 hPa 0,0 l/m 6,4 km/h (2 Bft) 0 min 0 min 9,6 km/h (2 Bft)
02.01.2012 16:16 15,9 C 8,5 C 0,0 UV-I 0,0 C 57 % 84 % 0 % 1011,2 hPa 0,0 l/m 6,4 km/h (2 Bft) 0 min 0 min 6,0 km/h (2 Bft)
02.01.2012 16:18 16,0 C 8,4 C 0,0 UV-I 0,0 C 57 % 84 % 0 % 1011,2 hPa 0,0 l/m 6,8 km/h (2 Bft) 0 min 0 min 6,4 km/h (2 Bft)
02.01.2012 16:20 16,0 C 8,5 C 0,0 UV-I 0,0 C 57 % 84 % 0 % 1011,2 hPa 0,0 l/m 6,4 km/h (2 Bft) 0 min 0 min 8,8 km/h (2 Bft)
02.01.2012 16:22 16,0 C 8,4 C 0,0 UV-I 0,0 C 57 % 84 % 0 % 1011,2 hPa 0,0 l/m 6,4 km/h (2 Bft) 0 min 0 min 13,7 km/h (3 Bft)
02.01.2012 16:24 16,0 C 8,4 C 0,0 UV-I 0,0 C 57 % 84 % 0 % 1011,1 hPa 0,0 l/m 5,2 km/h (1 Bft) 0 min 0 min 13,7 km/h (3 Bft)
02.01.2012 16:26 16,0 C 8,4 C 0,0 UV-I 0,0 C 56 % 84 % 0 % 1011,1 hPa 0,0 l/m 6,0 km/h (2 Bft) 0 min 0 min 9,2 km/h (2 Bft)
02.01.2012 16:28 16,0 C 8,4 C 0,0 UV-I 0,0 C 56 % 83 % 0 % 1011,1 hPa 0,0 l/m 6,4 km/h (2 Bft) 0 min 0 min 13,7 km/h (3 Bft)
02.01.2012 16:30 16,0 C 8,4 C 0,0 UV-I 0,0 C 56 % 83 % 0 % 1011,1 hPa 0,0 l/m 6,8 km/h (2 Bft) 0 min 0 min 13,7 km/h (3 Bft)
02.01.2012 16:32 15,8 C 8,4 C 0,0 UV-I 0,0 C 56 % 83 % 0 % 1011,1 hPa 0,0 l/m 7,2 km/h (2 Bft) 0 min 0 min 9,2 km/h (2 Bft)
02.01.2012 16:34 15,8 C 8,3 C 0,0 UV-I 0,0 C 56 % 83 % 0 % 1011,1 hPa 0,0 l/m 6,8 km/h (2 Bft) 0 min 0 min 8,4 km/h (2 Bft)
02.01.2012 16:36 15,9 C 8,3 C 0,0 UV-I 0,0 C 56 % 83 % 0 % 1011,1 hPa 0,0 l/m 7,6 km/h (2 Bft) 0 min 0 min 8,4 km/h (2 Bft)
02.01.2012 16:38 15,9 C 8,3 C 0,0 UV-I 0,0 C 56 % 83 % 0 % 1011,1 hPa 0,0 l/m 7,6 km/h (2 Bft) 0 min 0 min 26,9 km/h (4 Bft)
02.01.2012 16:40 15,9 C 8,2 C 0,0 UV-I 0,0 C 56 % 83 % 0 % 1011,1 hPa 0,0 l/m 8,4 km/h (2 Bft) 0 min 0 min 26,9 km/h (4 Bft)
02.01.2012 16:42 15,9 C 8,3 C 0,0 UV-I 0,0 C 56 % 83 % 0 % 1011,1 hPa 0,0 l/m 8,0 km/h (2 Bft) 0 min 0 min 14,5 km/h (3 Bft)
02.01.2012 16:44 15,9 C 8,3 C 0,0 UV-I 0,0 C 56 % 82 % 0 % 1011,4 hPa 0,0 l/m 8,0 km/h (2 Bft) 0 min 0 min 13,3 km/h (3 Bft)
02.01.2012 16:46 15,9 C 8,1 C 0,0 UV-I 0,0 C 56 % 83 % 0 % 1011,4 hPa 0,0 l/m 8,0 km/h (2 Bft) 0 min 0 min 13,3 km/h (3 Bft)
02.01.2012 16:48 15,8 C 8,1 C 0,0 UV-I 0,0 C 56 % 82 % 0 % 1011,4 hPa 0,0 l/m 8,4 km/h (2 Bft) 0 min 0 min 9,6 km/h (2 Bft)
02.01.2012 16:50 15,9 C 8,0 C 0,0 UV-I 0,0 C 56 % 83 % 0 % 1011,4 hPa 0,0 l/m 6,8 km/h (2 Bft) 0 min 0 min 11,2 km/h (2 Bft)
02.01.2012 16:52 15,8 C 8,1 C 0,0 UV-I 0,0 C 56 % 83 % 0 % 1011,4 hPa 0,0 l/m 6,0 km/h (2 Bft) 0 min 0 min 11,2 km/h (2 Bft)
02.01.2012 16:54 15,8 C 8,0 C 0,0 UV-I 0,0 C 56 % 83 % 0 % 1011,4 hPa 0,0 l/m 6,0 km/h (2 Bft) 0 min 0 min 9,6 km/h (2 Bft)
02.01.2012 16:56 15,8 C 7,9 C 0,0 UV-I 0,0 C 56 % 83 % 0 % 1011,4 hPa 0,0 l/m 6,0 km/h (2 Bft) 0 min 0 min 9,6 km/h (2 Bft)
02.01.2012 16:58 15,8 C 7,9 C 0,0 UV-I 0,0 C 56 % 83 % 0 % 1011,4 hPa 0,0 l/m 5,6 km/h (1 Bft) 0 min 0 min 8,0 km/h (2 Bft)
02.01.2012 17:00 15,8 C 7,9 C 0,0 UV-I 0,0 C 56 % 83 % 0 % 1011,4 hPa 0,0 l/m 6,4 km/h (2 Bft) 0 min 0 min 12,8 km/h (3 Bft)
02.01.2012 17:02 15,8 C 7,8 C 0,0 UV-I 0,0 C 56 % 83 % 0 % 1011,4 hPa 0,0 l/m 6,8 km/h (2 Bft) 0 min 0 min 12,8 km/h (3 Bft)
02.01.2012 17:04 15,8 C 7,9 C 0,0 UV-I 0,0 C 56 % 83 % 0 % 1011,9 hPa 0,0 l/m 6,4 km/h (2 Bft) 0 min 0 min 0,0 km/h (0 Bft)
02.01.2012 17:06 15,8 C 7,8 C 0,0 UV-I 0,0 C 56 % 83 % 0 % 1011,9 hPa 0,0 l/m 6,0 km/h (2 Bft) 0 min 0 min 8,4 km/h (2 Bft)
02.01.2012 17:08 15,6 C 7,8 C 0,0 UV-I 0,0 C 56 % 83 % 0 % 1011,9 hPa 0,0 l/m 6,8 km/h (2 Bft) 0 min 0 min 18,1 km/h (3 Bft)
02.01.2012 17:10 15,6 C 7,7 C 0,0 UV-I 0,0 C 56 % 83 % 0 % 1011,9 hPa 0,0 l/m 7,2 km/h (2 Bft) 0 min 0 min 18,9 km/h (3 Bft)
02.01.2012 17:12 15,6 C 7,7 C 0,0 UV-I 0,0 C 56 % 83 % 0 % 1011,9 hPa 0,0 l/m 7,2 km/h (2 Bft) 0 min 0 min 18,9 km/h (3 Bft)
02.01.2012 17:14 15,7 C 7,7 C 0,0 UV-I 0,0 C 56 % 83 % 0 % 1011,9 hPa 0,0 l/m 7,2 km/h (2 Bft) 0 min 0 min 14,1 km/h (3 Bft)
02.01.2012 17:16 15,7 C 7,8 C 0,0 UV-I 0,0 C 56 % 83 % 0 % 1011,9 hPa 0,0 l/m 8,0 km/h (2 Bft) 0 min 0 min 14,1 km/h (3 Bft)
02.01.2012 17:18 15,6 C 7,7 C 0,0 UV-I 0,0 C 56 % 83 % 0 % 1011,9 hPa 0,0 l/m 8,0 km/h (2 Bft) 0 min 0 min 16,1 km/h (3 Bft)
02.01.2012 17:20 15,6 C 7,7 C 0,0 UV-I 0,0 C 56 % 83 % 0 % 1011,9 hPa 0,0 l/m 8,0 km/h (2 Bft) 0 min 0 min 16,1 km/h (3 Bft)
02.01.2012 17:22 15,6 C 7,8 C 0,0 UV-I 0,0 C 56 % 83 % 0 % 1011,9 hPa 0,0 l/m 8,0 km/h (2 Bft) 0 min 0 min 13,7 km/h (3 Bft)
02.01.2012 17:24 15,6 C 7,7 C 0,0 UV-I 0,0 C 56 % 83 % 0 % 1012,4 hPa 0,0 l/m 8,0 km/h (2 Bft) 0 min 0 min 11,6 km/h (2 Bft)
02.01.2012 17:26 15,6 C 7,9 C 0,0 UV-I 0,0 C 56 % 83 % 0 % 1012,4 hPa 0,0 l/m 8,8 km/h (2 Bft) 0 min 0 min 36,1 km/h (5 Bft)
02.01.2012 17:28 15,6 C 7,9 C 0,0 UV-I 0,0 C 56 % 83 % 0 % 1012,4 hPa 0,0 l/m 9,2 km/h (2 Bft) 0 min 0 min 36,1 km/h (5 Bft)
02.01.2012 17:30 15,6 C 7,9 C 0,0 UV-I 0,0 C 56 % 83 % 0 % 1012,4 hPa 0,0 l/m 9,2 km/h (2 Bft) 0 min 0 min 10,0 km/h (2 Bft)
02.01.2012 17:32 15,6 C 7,8 C 0,0 UV-I 0,0 C 55 % 83 % 0 % 1012,4 hPa 0,0 l/m 9,2 km/h (2 Bft) 0 min 0 min 10,0 km/h (2 Bft)
02.01.2012 17:34 15,6 C 7,8 C 0,0 UV-I 0,0 C 55 % 83 % 0 % 1012,4 hPa 0,0 l/m 9,6 km/h (2 Bft) 0 min 0 min 9,6 km/h (2 Bft)
02.01.2012 17:36 15,6 C 7,9 C 0,0 UV-I 0,0 C 55 % 83 % 0 % 1012,4 hPa 0,0 l/m 10,0 km/h (2 Bft) 0 min 0 min 19,7 km/h (3 Bft)
02.01.2012 17:38 15,6 C 7,8 C 0,0 UV-I 0,0 C 55 % 83 % 0 % 1012,4 hPa 0,0 l/m 8,8 km/h (2 Bft) 0 min 0 min 19,7 km/h (3 Bft)
02.01.2012 17:40 15,6 C 7,8 C 0,0 UV-I 0,0 C 55 % 83 % 0 % 1012,4 hPa 0,0 l/m 8,8 km/h (2 Bft) 0 min 0 min 16,1 km/h (3 Bft)
02.01.2012 17:42 15,6 C 7,8 C 0,0 UV-I 0,0 C 55 % 83 % 0 % 1012,4 hPa 0,0 l/m 9,2 km/h (2 Bft) 0 min 0 min 16,1 km/h (3 Bft)
02.01.2012 17:44 15,6 C 7,8 C 0,0 UV-I 0,0 C 55 % 83 % 0 % 1012,7 hPa 0,0 l/m 8,4 km/h (2 Bft) 0 min 0 min 15,7 km/h (3 Bft)
02.01.2012 17:46 15,6 C 7,8 C 0,0 UV-I 0,0 C 55 % 83 % 0 % 1012,7 hPa 0,0 l/m 8,4 km/h (2 Bft) 0 min 0 min 11,2 km/h (2 Bft)
02.01.2012 17:48 15,6 C 7,9 C 0,0 UV-I 0,0 C 55 % 83 % 0 % 1012,7 hPa 0,0 l/m 8,0 km/h (2 Bft) 0 min 0 min 11,2 km/h (2 Bft)
02.01.2012 17:50 15,6 C 7,9 C 0,0 UV-I 0,0 C 55 % 83 % 0 % 1012,7 hPa 0,0 l/m 7,6 km/h (2 Bft) 0 min 0 min 9,2 km/h (2 Bft)
02.01.2012 17:52 15,6 C 7,9 C 0,0 UV-I 0,0 C 55 % 83 % 0 % 1012,7 hPa 0,0 l/m 7,2 km/h (2 Bft) 0 min 0 min 15,7 km/h (3 Bft)
02.01.2012 17:54 15,6 C 7,9 C 0,0 UV-I 0,0 C 55 % 83 % 0 % 1012,7 hPa 0,0 l/m 7,6 km/h (2 Bft) 0 min 0 min 15,7 km/h (3 Bft)
02.01.2012 17:56 15,6 C 7,9 C 0,0 UV-I 0,0 C 55 % 83 % 0 % 1012,7 hPa 0,0 l/m 8,0 km/h (2 Bft) 0 min 0 min 13,7 km/h (3 Bft)
02.01.2012 17:58 15,4 C 7,8 C 0,0 UV-I 0,0 C 55 % 83 % 0 % 1012,7 hPa 0,0 l/m 8,0 km/h (2 Bft) 0 min 0 min 13,7 km/h (3 Bft)
02.01.2012 18:00 15,6 C 7,8 C 0,0 UV-I 0,0 C 55 % 83 % 0 % 1012,7 hPa 0,0 l/m 9,6 km/h (2 Bft) 0 min 0 min 15,7 km/h (3 Bft)
02.01.2012 18:02 15,4 C 7,9 C 0,0 UV-I 0,0 C 55 % 83 % 0 % 1012,7 hPa 0,0 l/m 9,6 km/h (2 Bft) 0 min 0 min 15,7 km/h (3 Bft)
02.01.2012 18:04 15,4 C 7,9 C 0,0 UV-I 0,0 C 55 % 83 % 0 % 1012,9 hPa 0,0 l/m 9,2 km/h (2 Bft) 0 min 0 min 6,0 km/h (2 Bft)
02.01.2012 18:06 15,4 C 7,9 C 0,0 UV-I 0,0 C 55 % 83 % 0 % 1012,9 hPa 0,0 l/m 9,2 km/h (2 Bft) 0 min 0 min 13,3 km/h (3 Bft)
02.01.2012 18:08 15,4 C 7,8 C 0,0 UV-I 0,0 C 55 % 82 % 0 % 1012,9 hPa 0,0 l/m 9,6 km/h (2 Bft) 0 min 0 min 13,3 km/h (3 Bft)
02.01.2012 18:10 15,4 C 7,7 C 0,0 UV-I 0,0 C 55 % 82 % 0 % 1012,9 hPa 0,0 l/m 9,6 km/h (2 Bft) 0 min 0 min 15,3 km/h (3 Bft)
02.01.2012 18:12 15,4 C 7,7 C 0,0 UV-I 0,0 C 55 % 82 % 0 % 1012,9 hPa 0,0 l/m 9,2 km/h (2 Bft) 0 min 0 min 15,3 km/h (3 Bft)
02.01.2012 18:14 15,4 C 7,7 C 0,0 UV-I 0,0 C 55 % 82 % 0 % 1012,9 hPa 0,0 l/m 9,2 km/h (2 Bft) 0 min 0 min 11,6 km/h (2 Bft)
02.01.2012 18:16 15,5 C 7,7 C 0,0 UV-I 0,0 C 55 % 81 % 0 % 1012,9 hPa 0,0 l/m 10,4 km/h (2 Bft) 0 min 0 min 12,4 km/h (3 Bft)
02.01.2012 18:18 15,5 C 7,7 C 0,0 UV-I 0,0 C 55 % 81 % 0 % 1012,9 hPa 0,0 l/m 10,8 km/h (2 Bft) 0 min 0 min 12,4 km/h (3 Bft)
02.01.2012 18:20 15,5 C 7,6 C 0,0 UV-I 0,0 C 55 % 81 % 0 % 1012,9 hPa 0,0 l/m 10,4 km/h (2 Bft) 0 min 0 min 10,4 km/h (2 Bft)
02.01.2012 18:22 15,5 C 7,6 C 0,0 UV-I 0,0 C 55 % 81 % 0 % 1012,9 hPa 0,0 l/m 9,6 km/h (2 Bft) 0 min 0 min 8,4 km/h (2 Bft)
02.01.2012 18:24 15,5 C 7,7 C 0,0 UV-I 0,0 C 55 % 81 % 0 % 1013,3 hPa 0,0 l/m 9,6 km/h (2 Bft) 0 min 0 min 8,4 km/h (2 Bft)
02.01.2012 18:26 15,3 C 7,6 C 0,0 UV-I 0,0 C 55 % 81 % 0 % 1013,3 hPa 0,0 l/m 8,4 km/h (2 Bft) 0 min 0 min 10,8 km/h (2 Bft)
02.01.2012 18:28 15,5 C 7,6 C 0,0 UV-I 0,0 C 54 % 81 % 0 % 1013,3 hPa 0,0 l/m 7,6 km/h (2 Bft) 0 min 0 min 10,8 km/h (2 Bft)
02.01.2012 18:30 15,3 C 7,5 C 0,0 UV-I 0,0 C 55 % 81 % 0 % 1013,3 hPa 0,0 l/m 8,0 km/h (2 Bft) 0 min 0 min 9,6 km/h (2 Bft)
02.01.2012 18:32 15,4 C 7,5 C 0,0 UV-I 0,0 C 55 % 82 % 0 % 1013,3 hPa 0,0 l/m 8,4 km/h (2 Bft) 0 min 0 min 14,5 km/h (3 Bft)
02.01.2012 18:34 15,4 C 7,5 C 0,0 UV-I 0,0 C 55 % 82 % 0 % 1013,3 hPa 0,0 l/m 8,8 km/h (2 Bft) 0 min 0 min 15,3 km/h (3 Bft)
02.01.2012 18:36 15,4 C 7,4 C 0,0 UV-I 0,0 C 54 % 82 % 0 % 1013,3 hPa 0,0 l/m 9,2 km/h (2 Bft) 0 min 0 min 21,7 km/h (4 Bft)
02.01.2012 18:38 15,4 C 7,5 C 0,0 UV-I 0,0 C 55 % 82 % 0 % 1013,3 hPa 0,0 l/m 10,0 km/h (2 Bft) 0 min 0 min 21,7 km/h (4 Bft)
02.01.2012 18:40 15,4 C 7,5 C 0,0 UV-I 0,0 C 55 % 82 % 0 % 1013,3 hPa 0,0 l/m 10,0 km/h (2 Bft) 0 min 0 min 21,7 km/h (4 Bft)
02.01.2012 18:42 15,4 C 7,5 C 0,0 UV-I 0,0 C 55 % 81 % 0 % 1013,3 hPa 0,0 l/m 9,6 km/h (2 Bft) 0 min 0 min 15,3 km/h (3 Bft)
02.01.2012 18:44 15,2 C 7,5 C 0,0 UV-I 0,0 C 54 % 81 % 0 % 1013,2 hPa 0,0 l/m 9,2 km/h (2 Bft) 0 min 0 min 10,8 km/h (2 Bft)
02.01.2012 18:46 15,2 C 7,3 C 0,0 UV-I 0,0 C 54 % 81 % 0 % 1013,2 hPa 0,0 l/m 9,6 km/h (2 Bft) 0 min 0 min 16,5 km/h (3 Bft)
02.01.2012 18:48 15,2 C 7,3 C 0,0 UV-I 0,0 C 54 % 81 % 0 % 1013,2 hPa 0,0 l/m 8,8 km/h (2 Bft) 0 min 0 min 16,5 km/h (3 Bft)
02.01.2012 18:50 15,2 C 7,3 C 0,0 UV-I 0,0 C 54 % 81 % 0 % 1013,2 hPa 0,0 l/m 8,4 km/h (2 Bft) 0 min 0 min 11,6 km/h (2 Bft)
02.01.2012 18:52 15,3 C 7,3 C 0,0 UV-I 0,0 C 54 % 81 % 0 % 1013,2 hPa 0,0 l/m 8,8 km/h (2 Bft) 0 min 0 min 15,7 km/h (3 Bft)
02.01.2012 18:54 15,2 C 7,2 C 0,0 UV-I 0,0 C 54 % 81 % 0 % 1013,2 hPa 0,0 l/m 8,8 km/h (2 Bft) 0 min 0 min 15,7 km/h (3 Bft)
02.01.2012 18:56 15,3 C 7,2 C 0,0 UV-I 0,0 C 54 % 81 % 0 % 1013,2 hPa 0,0 l/m 8,8 km/h (2 Bft) 0 min 0 min 10,8 km/h (2 Bft)
02.01.2012 18:58 15,1 C 7,2 C 0,0 UV-I 0,0 C 54 % 82 % 0 % 1013,2 hPa 0,0 l/m 9,2 km/h (2 Bft) 0 min 0 min 11,2 km/h (2 Bft)
02.01.2012 19:00 15,1 C 7,2 C 0,0 UV-I 0,0 C 54 % 82 % 0 % 1013,2 hPa 0,0 l/m 8,4 km/h (2 Bft) 0 min 0 min 11,2 km/h (2 Bft)
02.01.2012 19:02 15,3 C 7,2 C 0,0 UV-I 0,0 C 54 % 82 % 0 % 1013,2 hPa 0,0 l/m 8,4 km/h (2 Bft) 0 min 0 min 7,6 km/h (2 Bft)
02.01.2012 19:04 15,1 C 7,1 C 0,0 UV-I 0,0 C 54 % 82 % 0 % 1013,2 hPa 0,0 l/m 7,6 km/h (2 Bft) 0 min 0 min 13,7 km/h (3 Bft)
02.01.2012 19:06 15,1 C 7,1 C 0,0 UV-I 0,0 C 55 % 82 % 0 % 1013,2 hPa 0,0 l/m 7,2 km/h (2 Bft) 0 min 0 min 13,7 km/h (3 Bft)
02.01.2012 19:08 15,2 C 7,0 C 0,0 UV-I 0,0 C 55 % 82 % 0 % 1013,2 hPa 0,0 l/m 7,2 km/h (2 Bft) 0 min 0 min 13,3 km/h (3 Bft)
02.01.2012 19:10 15,1 C 7,1 C 0,0 UV-I 0,0 C 54 % 82 % 0 % 1013,2 hPa 0,0 l/m 6,0 km/h (2 Bft) 0 min 0 min 8,4 km/h (2 Bft)
02.01.2012 19:12 15,2 C 7,1 C 0,0 UV-I 0,0 C 54 % 82 % 0 % 1013,2 hPa 0,0 l/m 5,6 km/h (1 Bft) 0 min 0 min 7,6 km/h (2 Bft)
02.01.2012 19:14 15,2 C 6,9 C 0,0 UV-I 0,0 C 55 % 82 % 0 % 1013,2 hPa 0,0 l/m 6,0 km/h (2 Bft) 0 min 0 min 14,5 km/h (3 Bft)
02.01.2012 19:16 15,2 C 6,9 C 0,0 UV-I 0,0 C 55 % 82 % 0 % 1013,2 hPa 0,0 l/m 6,4 km/h (2 Bft) 0 min 0 min 18,5 km/h (3 Bft)
02.01.2012 19:18 15,2 C 6,9 C 0,0 UV-I 0,0 C 55 % 82 % 0 % 1013,2 hPa 0,0 l/m 6,0 km/h (2 Bft) 0 min 0 min 18,5 km/h (3 Bft)
02.01.2012 19:20 15,2 C 6,8 C 0,0 UV-I 0,0 C 54 % 82 % 0 % 1013,2 hPa 0,0 l/m 6,4 km/h (2 Bft) 0 min 0 min 8,8 km/h (2 Bft)
02.01.2012 19:22 15,1 C 6,8 C 0,0 UV-I 0,0 C 55 % 82 % 0 % 1013,2 hPa 0,0 l/m 7,2 km/h (2 Bft) 0 min 0 min 10,0 km/h (2 Bft)
02.01.2012 19:24 15,1 C 6,8 C 0,0 UV-I 0,0 C 55 % 82 % 0 % 1014,2 hPa 0,0 l/m 6,8 km/h (2 Bft) 0 min 0 min 10,0 km/h (2 Bft)
02.01.2012 19:26 15,1 C 6,8 C 0,0 UV-I 0,0 C 55 % 83 % 0 % 1014,2 hPa 0,0 l/m 6,0 km/h (2 Bft) 0 min 0 min 8,0 km/h (2 Bft)
02.01.2012 19:28 15,1 C 6,9 C 0,0 UV-I 0,0 C 55 % 83 % 0 % 1014,2 hPa 0,0 l/m 5,6 km/h (1 Bft) 0 min 0 min 8,0 km/h (2 Bft)
02.01.2012 19:30 15,1 C 6,8 C 0,0 UV-I 0,0 C 55 % 83 % 0 % 1014,2 hPa 0,0 l/m 5,6 km/h (1 Bft) 0 min 0 min 8,4 km/h (2 Bft)
02.01.2012 19:32 15,1 C 6,8 C 0,0 UV-I 0,0 C 55 % 83 % 0 % 1014,2 hPa 0,0 l/m 6,0 km/h (2 Bft) 0 min 0 min 15,3 km/h (3 Bft)
02.01.2012 19:34 14,9 C 6,8 C 0,0 UV-I 0,0 C 55 % 83 % 0 % 1014,2 hPa 0,0 l/m 6,0 km/h (2 Bft) 0 min 0 min 15,3 km/h (3 Bft)
02.01.2012 19:36 14,9 C 6,8 C 0,0 UV-I 0,0 C 55 % 83 % 0 % 1014,2 hPa 0,0 l/m 6,8 km/h (2 Bft) 0 min 0 min 12,8 km/h (3 Bft)
02.01.2012 19:38 15,0 C 6,8 C 0,0 UV-I 0,0 C 55 % 83 % 0 % 1014,2 hPa 0,0 l/m 6,4 km/h (2 Bft) 0 min 0 min 12,8 km/h (3 Bft)
02.01.2012 19:40 15,0 C 6,7 C 0,0 UV-I 0,0 C 55 % 83 % 0 % 1014,2 hPa 0,0 l/m 6,8 km/h (2 Bft) 0 min 0 min 7,6 km/h (2 Bft)
02.01.2012 19:42 15,0 C 6,7 C 0,0 UV-I 0,0 C 55 % 83 % 0 % 1014,2 hPa 0,0 l/m 6,4 km/h (2 Bft) 0 min 0 min 7,6 km/h (2 Bft)
02.01.2012 19:44 15,0 C 6,7 C 0,0 UV-I 0,0 C 55 % 83 % 0 % 1014,9 hPa 0,0 l/m 6,4 km/h (2 Bft) 0 min 0 min 7,6 km/h (2 Bft)
02.01.2012 19:46 15,0 C 6,7 C 0,0 UV-I 0,0 C 55 % 83 % 0 % 1014,9 hPa 0,0 l/m 6,4 km/h (2 Bft) 0 min 0 min 7,6 km/h (2 Bft)
02.01.2012 19:48 15,0 C 6,7 C 0,0 UV-I 0,0 C 55 % 83 % 0 % 1014,9 hPa 0,0 l/m 6,4 km/h (2 Bft) 0 min 0 min 14,1 km/h (3 Bft)
02.01.2012 19:50 15,0 C 6,7 C 0,0 UV-I 0,0 C 55 % 83 % 0 % 1014,9 hPa 0,0 l/m 6,8 km/h (2 Bft) 0 min 0 min 14,1 km/h (3 Bft)
02.01.2012 19:52 15,0 C 6,7 C 0,0 UV-I 0,0 C 55 % 83 % 0 % 1014,9 hPa 0,0 l/m 7,2 km/h (2 Bft) 0 min 0 min 10,8 km/h (2 Bft)
02.01.2012 19:54 15,0 C 6,5 C 0,0 UV-I 0,0 C 55 % 83 % 0 % 1014,9 hPa 0,0 l/m 6,4 km/h (2 Bft) 0 min 0 min 6,0 km/h (2 Bft)
02.01.2012 19:56 15,0 C 6,5 C 0,0 UV-I 0,0 C 55 % 83 % 0 % 1014,9 hPa 0,0 l/m 6,4 km/h (2 Bft) 0 min 0 min 11,6 km/h (2 Bft)
02.01.2012 19:58 15,0 C 6,5 C 0,0 UV-I 0,0 C 55 % 83 % 0 % 1014,9 hPa 0,0 l/m 6,0 km/h (2 Bft) 0 min 0 min 11,6 km/h (2 Bft)
02.01.2012 20:00 15,0 C 6,5 C 0,0 UV-I 0,0 C 55 % 83 % 0 % 1014,9 hPa 0,0 l/m 6,0 km/h (2 Bft) 0 min 0 min 8,8 km/h (2 Bft)
02.01.2012 20:02 15,0 C 6,4 C 0,0 UV-I 0,0 C 55 % 83 % 0 % 1014,9 hPa 0,0 l/m 6,0 km/h (2 Bft) 0 min 0 min 8,8 km/h (2 Bft)
02.01.2012 20:04 15,0 C 6,4 C 0,0 UV-I 0,0 C 55 % 83 % 0 % 1014,9 hPa 0,0 l/m 6,0 km/h (2 Bft) 0 min 0 min 10,4 km/h (2 Bft)
02.01.2012 20:06 14,8 C 6,5 C 0,0 UV-I 0,0 C 55 % 83 % 0 % 1014,9 hPa 0,0 l/m 6,0 km/h (2 Bft) 0 min 0 min 10,4 km/h (2 Bft)
02.01.2012 20:08 14,8 C 6,5 C 0,0 UV-I 0,0 C 55 % 83 % 0 % 1014,9 hPa 0,0 l/m 5,6 km/h (1 Bft) 0 min 0 min 8,4 km/h (2 Bft)
02.01.2012 20:10 14,8 C 6,4 C 0,0 UV-I 0,0 C 55 % 83 % 0 % 1014,9 hPa 0,0 l/m 6,0 km/h (2 Bft) 0 min 0 min 8,8 km/h (2 Bft)
02.01.2012 20:12 14,8 C 6,4 C 0,0 UV-I 0,0 C 55 % 83 % 0 % 1014,9 hPa 0,0 l/m 4,8 km/h (1 Bft) 0 min 0 min 8,8 km/h (2 Bft)
02.01.2012 20:14 14,8 C 6,3 C 0,0 UV-I 0,0 C 55 % 83 % 0 % 1014,9 hPa 0,0 l/m 4,4 km/h (1 Bft) 0 min 0 min 5,2 km/h (1 Bft)
02.01.2012 20:16 14,8 C 6,3 C 0,0 UV-I 0,0 C 55 % 83 % 0 % 1014,9 hPa 0,0 l/m 4,4 km/h (1 Bft) 0 min 0 min 10,8 km/h (2 Bft)
02.01.2012 20:18 14,8 C 6,3 C 0,0 UV-I 0,0 C 55 % 83 % 0 % 1014,9 hPa 0,0 l/m 4,4 km/h (1 Bft) 0 min 0 min 10,8 km/h (2 Bft)
02.01.2012 20:20 14,8 C 6,3 C 0,0 UV-I 0,0 C 55 % 84 % 0 % 1014,9 hPa 0,0 l/m 4,0 km/h (1 Bft) 0 min 0 min 5,2 km/h (1 Bft)
02.01.2012 20:22 14,8 C 6,3 C 0,0 UV-I 0,0 C 55 % 84 % 0 % 1014,9 hPa 0,0 l/m 3,6 km/h (1 Bft) 0 min 0 min 4,4 km/h (1 Bft)
02.01.2012 20:24 14,8 C 6,3 C 0,0 UV-I 0,0 C 55 % 84 % 0 % 1015,2 hPa 0,0 l/m 3,6 km/h (1 Bft) 0 min 0 min 4,0 km/h (1 Bft)
02.01.2012 20:26 14,9 C 6,3 C 0,0 UV-I 0,0 C 55 % 84 % 0 % 1015,2 hPa 0,0 l/m 3,6 km/h (1 Bft) 0 min 0 min 8,8 km/h (2 Bft)
02.01.2012 20:28 14,9 C 6,2 C 0,0 UV-I 0,0 C 55 % 84 % 0 % 1015,2 hPa 0,0 l/m 4,0 km/h (1 Bft) 0 min 0 min 11,6 km/h (2 Bft)
02.01.2012 20:30 14,8 C 6,1 C 0,0 UV-I 0,0 C 55 % 84 % 0 % 1015,2 hPa 0,0 l/m 4,4 km/h (1 Bft) 0 min 0 min 11,6 km/h (2 Bft)
02.01.2012 20:32 14,8 C 6,1 C 0,0 UV-I 0,0 C 55 % 84 % 0 % 1015,2 hPa 0,0 l/m 4,8 km/h (1 Bft) 0 min 0 min 11,2 km/h (2 Bft)
02.01.2012 20:34 14,8 C 6,0 C 0,0 UV-I 0,0 C 55 % 84 % 0 % 1015,2 hPa 0,0 l/m 5,6 km/h (1 Bft) 0 min 0 min 11,2 km/h (2 Bft)
02.01.2012 20:36 14,8 C 6,0 C 0,0 UV-I 0,0 C 55 % 84 % 0 % 1015,2 hPa 0,0 l/m 6,4 km/h (2 Bft) 0 min 0 min 12,8 km/h (3 Bft)
02.01.2012 20:38 14,8 C 6,0 C 0,0 UV-I 0,0 C 55 % 84 % 0 % 1015,2 hPa 0,0 l/m 6,4 km/h (2 Bft) 0 min 0 min 12,8 km/h (3 Bft)
02.01.2012 20:40 14,8 C 6,0 C 0,0 UV-I 0,0 C 55 % 84 % 0 % 1015,2 hPa 0,0 l/m 6,0 km/h (2 Bft) 0 min 0 min 9,2 km/h (2 Bft)
02.01.2012 20:42 14,8 C 6,1 C 0,0 UV-I 0,0 C 55 % 84 % 0 % 1015,2 hPa 0,0 l/m 6,0 km/h (2 Bft) 0 min 0 min 9,2 km/h (2 Bft)
02.01.2012 20:44 14,8 C 6,0 C 0,0 UV-I 0,0 C 55 % 84 % 0 % 1015,2 hPa 0,0 l/m 5,2 km/h (1 Bft) 0 min 0 min 5,2 km/h (1 Bft)
02.01.2012 20:46 14,8 C 6,0 C 0,0 UV-I 0,0 C 55 % 84 % 0 % 1015,2 hPa 0,0 l/m 5,2 km/h (1 Bft) 0 min 0 min 21,7 km/h (4 Bft)
02.01.2012 20:48 14,8 C 6,0 C 0,0 UV-I 0,0 C 55 % 84 % 0 % 1015,2 hPa 0,0 l/m 5,6 km/h (1 Bft) 0 min 0 min 21,7 km/h (4 Bft)
02.01.2012 20:50 14,8 C 6,0 C 0,0 UV-I 0,0 C 55 % 84 % 0 % 1015,2 hPa 0,0 l/m 6,4 km/h (2 Bft) 0 min 0 min 17,3 km/h (3 Bft)
02.01.2012 20:52 14,8 C 6,0 C 0,0 UV-I 0,0 C 55 % 84 % 0 % 1015,2 hPa 0,0 l/m 6,8 km/h (2 Bft) 0 min 0 min 17,3 km/h (3 Bft)
02.01.2012 20:54 14,8 C 6,0 C 0,0 UV-I 0,0 C 55 % 84 % 0 % 1015,2 hPa 0,0 l/m 7,2 km/h (2 Bft) 0 min 0 min 9,6 km/h (2 Bft)
02.01.2012 20:56 14,8 C 5,9 C 0,0 UV-I 0,0 C 55 % 84 % 0 % 1015,2 hPa 0,0 l/m 7,2 km/h (2 Bft) 0 min 0 min 7,2 km/h (2 Bft)
02.01.2012 20:58 14,8 C 5,9 C 0,0 UV-I 0,0 C 54 % 84 % 0 % 1015,2 hPa 0,0 l/m 6,4 km/h (2 Bft) 0 min 0 min 12,8 km/h (3 Bft)
02.01.2012 21:00 14,8 C 5,9 C 0,0 UV-I 0,0 C 54 % 84 % 0 % 1015,2 hPa 0,0 l/m 6,0 km/h (2 Bft) 0 min 0 min 12,8 km/h (3 Bft)
02.01.2012 21:02 14,8 C 5,9 C 0,0 UV-I 0,0 C 54 % 84 % 0 % 1015,2 hPa 0,0 l/m 5,6 km/h (1 Bft) 0 min 0 min 13,3 km/h (3 Bft)
02.01.2012 21:04 14,8 C 5,9 C 0,0 UV-I 0,0 C 54 % 84 % 0 % 1015,3 hPa 0,0 l/m 4,4 km/h (1 Bft) 0 min 0 min 0,0 km/h (0 Bft)
02.01.2012 21:06 14,6 C 5,9 C 0,0 UV-I 0,0 C 55 % 84 % 0 % 1015,3 hPa 0,0 l/m 4,4 km/h (1 Bft) 0 min 0 min 10,8 km/h (2 Bft)
02.01.2012 21:08 14,8 C 5,7 C 0,0 UV-I 0,0 C 54 % 84 % 0 % 1015,3 hPa 0,0 l/m 4,8 km/h (1 Bft) 0 min 0 min 10,8 km/h (2 Bft)
02.01.2012 21:10 14,6 C 5,7 C 0,0 UV-I 0,0 C 54 % 84 % 0 % 1015,3 hPa 0,0 l/m 4,4 km/h (1 Bft) 0 min 0 min 9,2 km/h (2 Bft)
02.01.2012 21:12 14,6 C 5,7 C 0,0 UV-I 0,0 C 54 % 84 % 0 % 1015,3 hPa 0,0 l/m 4,8 km/h (1 Bft) 0 min 0 min 24,1 km/h (4 Bft)
02.01.2012 21:14 14,6 C 5,7 C 0,0 UV-I 0,0 C 54 % 84 % 0 % 1015,3 hPa 0,0 l/m 5,6 km/h (1 Bft) 0 min 0 min 24,1 km/h (4 Bft)
02.01.2012 21:16 14,6 C 5,7 C 0,0 UV-I 0,0 C 54 % 84 % 0 % 1015,3 hPa 0,0 l/m 7,2 km/h (2 Bft) 0 min 0 min 10,0 km/h (2 Bft)
02.01.2012 21:18 14,7 C 5,7 C 0,0 UV-I 0,0 C 54 % 84 % 0 % 1015,3 hPa 0,0 l/m 7,2 km/h (2 Bft) 0 min 0 min 10,0 km/h (2 Bft)
02.01.2012 21:20 14,7 C 5,7 C 0,0 UV-I 0,0 C 54 % 84 % 0 % 1015,3 hPa 0,0 l/m 7,2 km/h (2 Bft) 0 min 0 min 7,2 km/h (2 Bft)
02.01.2012 21:22 14,7 C 5,6 C 0,0 UV-I 0,0 C 54 % 84 % 0 % 1015,3 hPa 0,0 l/m 7,2 km/h (2 Bft) 0 min 0 min 9,6 km/h (2 Bft)
02.01.2012 21:24 14,7 C 5,6 C 0,0 UV-I 0,0 C 54 % 84 % 0 % 1015,8 hPa 0,0 l/m 6,0 km/h (2 Bft) 0 min 0 min 9,6 km/h (2 Bft)
02.01.2012 21:26 14,7 C 5,6 C 0,0 UV-I 0,0 C 54 % 84 % 0 % 1015,8 hPa 0,0 l/m 5,6 km/h (1 Bft) 0 min 0 min 8,8 km/h (2 Bft)
02.01.2012 21:28 14,7 C 5,6 C 0,0 UV-I 0,0 C 54 % 84 % 0 % 1015,8 hPa 0,0 l/m 6,4 km/h (2 Bft) 0 min 0 min 13,7 km/h (3 Bft)
02.01.2012 21:30 14,6 C 5,6 C 0,0 UV-I 0,0 C 54 % 84 % 0 % 1015,8 hPa 0,0 l/m 7,2 km/h (2 Bft) 0 min 0 min 13,7 km/h (3 Bft)
02.01.2012 21:32 14,6 C 5,7 C 0,0 UV-I 0,0 C 54 % 84 % 0 % 1015,8 hPa 0,0 l/m 8,4 km/h (2 Bft) 0 min 0 min 10,8 km/h (2 Bft)
02.01.2012 21:34 14,6 C 5,6 C 0,0 UV-I 0,0 C 54 % 84 % 0 % 1015,8 hPa 0,0 l/m 8,4 km/h (2 Bft) 0 min 0 min 12,0 km/h (2 Bft)
02.01.2012 21:36 14,6 C 5,6 C 0,0 UV-I 0,0 C 54 % 84 % 0 % 1015,8 hPa 0,0 l/m 8,8 km/h (2 Bft) 0 min 0 min 12,0 km/h (2 Bft)
02.01.2012 21:38 14,6 C 5,6 C 0,0 UV-I 0,0 C 54 % 84 % 0 % 1015,8 hPa 0,0 l/m 8,8 km/h (2 Bft) 0 min 0 min 17,7 km/h (3 Bft)
02.01.2012 21:40 14,6 C 5,6 C 0,0 UV-I 0,0 C 54 % 84 % 0 % 1015,8 hPa 0,0 l/m 8,0 km/h (2 Bft) 0 min 0 min 17,7 km/h (3 Bft)
02.01.2012 21:42 14,6 C 5,6 C 0,0 UV-I 0,0 C 54 % 84 % 0 % 1015,8 hPa 0,0 l/m 7,6 km/h (2 Bft) 0 min 0 min 6,0 km/h (2 Bft)
02.01.2012 21:44 14,6 C 5,6 C 0,0 UV-I 0,0 C 54 % 84 % 0 % 1015,3 hPa 0,0 l/m 7,2 km/h (2 Bft) 0 min 0 min 6,0 km/h (2 Bft)
02.01.2012 21:46 14,6 C 5,6 C 0,0 UV-I 0,0 C 54 % 84 % 0 % 1015,3 hPa 0,0 l/m 7,2 km/h (2 Bft) 0 min 0 min 11,6 km/h (2 Bft)
02.01.2012 21:48 14,6 C 5,6 C 0,0 UV-I 0,0 C 54 % 84 % 0 % 1015,3 hPa 0,0 l/m 8,0 km/h (2 Bft) 0 min 0 min 12,4 km/h (3 Bft)
02.01.2012 21:50 14,6 C 5,6 C 0,0 UV-I 0,0 C 54 % 84 % 0 % 1015,3 hPa 0,0 l/m 7,2 km/h (2 Bft) 0 min 0 min 12,4 km/h (3 Bft)
02.01.2012 21:52 14,6 C 5,6 C 0,0 UV-I 0,0 C 54 % 84 % 0 % 1015,3 hPa 0,0 l/m 7,2 km/h (2 Bft) 0 min 0 min 11,2 km/h (2 Bft)
02.01.2012 21:54 14,6 C 5,6 C 0,0 UV-I 0,0 C 54 % 84 % 0 % 1015,3 hPa 0,0 l/m 6,0 km/h (2 Bft) 0 min 0 min 11,2 km/h (2 Bft)
02.01.2012 21:56 14,6 C 5,6 C 0,0 UV-I 0,0 C 54 % 84 % 0 % 1015,3 hPa 0,0 l/m 6,0 km/h (2 Bft) 0 min 0 min 8,0 km/h (2 Bft)
02.01.2012 21:58 14,6 C 5,5 C 0,0 UV-I 0,0 C 54 % 84 % 0 % 1015,3 hPa 0,0 l/m 5,6 km/h (1 Bft) 0 min 0 min 6,8 km/h (2 Bft)
02.01.2012 22:00 14,6 C 5,5 C 0,0 UV-I 0,0 C 54 % 84 % 0 % 1015,3 hPa 0,0 l/m 5,6 km/h (1 Bft) 0 min 0 min 6,8 km/h (2 Bft)
02.01.2012 22:02 14,4 C 5,5 C 0,0 UV-I 0,0 C 54 % 84 % 0 % 1015,3 hPa 0,0 l/m 5,6 km/h (1 Bft) 0 min 0 min 12,8 km/h (3 Bft)
02.01.2012 22:04 14,4 C 5,5 C 0,0 UV-I 0,0 C 54 % 84 % 0 % 1015,6 hPa 0,0 l/m 5,6 km/h (1 Bft) 0 min 0 min 5,2 km/h (1 Bft)
02.01.2012 22:06 14,4 C 5,5 C 0,0 UV-I 0,0 C 54 % 84 % 0 % 1015,6 hPa 0,0 l/m 5,6 km/h (1 Bft) 0 min 0 min 16,9 km/h (3 Bft)
02.01.2012 22:08 14,4 C 5,4 C 0,0 UV-I 0,0 C 54 % 84 % 0 % 1015,6 hPa 0,0 l/m 6,4 km/h (2 Bft) 0 min 0 min 16,9 km/h (3 Bft)
02.01.2012 22:10 14,4 C 5,4 C 0,0 UV-I 0,0 C 54 % 84 % 0 % 1015,6 hPa 0,0 l/m 6,4 km/h (2 Bft) 0 min 0 min 10,0 km/h (2 Bft)
02.01.2012 22:12 14,4 C 5,4 C 0,0 UV-I 0,0 C 54 % 84 % 0 % 1015,6 hPa 0,0 l/m 6,0 km/h (2 Bft) 0 min 0 min 8,0 km/h (2 Bft)
02.01.2012 22:14 14,4 C 5,5 C 0,0 UV-I 0,0 C 54 % 84 % 0 % 1015,6 hPa 0,0 l/m 6,8 km/h (2 Bft) 0 min 0 min 19,7 km/h (3 Bft)
02.01.2012 22:16 14,4 C 5,5 C 0,0 UV-I 0,0 C 54 % 84 % 0 % 1015,6 hPa 0,0 l/m 6,8 km/h (2 Bft) 0 min 0 min 19,7 km/h (3 Bft)
02.01.2012 22:18 14,4 C 5,5 C 0,0 UV-I 0,0 C 54 % 84 % 0 % 1015,6 hPa 0,0 l/m 6,8 km/h (2 Bft) 0 min 0 min 8,8 km/h (2 Bft)
02.01.2012 22:20 14,4 C 5,5 C 0,0 UV-I 0,0 C 54 % 84 % 0 % 1015,6 hPa 0,0 l/m 6,4 km/h (2 Bft) 0 min 0 min 6,8 km/h (2 Bft)
02.01.2012 22:22 14,4 C 5,5 C 0,0 UV-I 0,0 C 54 % 84 % 0 % 1015,6 hPa 0,0 l/m 6,4 km/h (2 Bft) 0 min 0 min 9,6 km/h (2 Bft)
02.01.2012 22:24 14,4 C 5,4 C 0,0 UV-I 0,0 C 54 % 84 % 0 % 1016,0 hPa 0,0 l/m 6,8 km/h (2 Bft) 0 min 0 min 9,6 km/h (2 Bft)
02.01.2012 22:26 14,5 C 5,5 C 0,0 UV-I 0,0 C 54 % 84 % 0 % 1016,0 hPa 0,0 l/m 6,8 km/h (2 Bft) 0 min 0 min 12,0 km/h (2 Bft)
02.01.2012 22:28 14,4 C 5,5 C 0,0 UV-I 0,0 C 54 % 84 % 0 % 1016,0 hPa 0,0 l/m 6,0 km/h (2 Bft) 0 min 0 min 12,0 km/h (2 Bft)
02.01.2012 22:30 14,5 C 5,5 C 0,0 UV-I 0,0 C 54 % 84 % 0 % 1016,0 hPa 0,0 l/m 6,8 km/h (2 Bft) 0 min 0 min 18,9 km/h (3 Bft)
02.01.2012 22:32 14,5 C 5,3 C 0,0 UV-I 0,0 C 54 % 84 % 0 % 1016,0 hPa 0,0 l/m 7,2 km/h (2 Bft) 0 min 0 min 18,9 km/h (3 Bft)
02.01.2012 22:34 14,5 C 5,4 C 0,0 UV-I 0,0 C 54 % 84 % 0 % 1016,0 hPa 0,0 l/m 6,4 km/h (2 Bft) 0 min 0 min 10,8 km/h (2 Bft)
02.01.2012 22:36 14,5 C 5,3 C 0,0 UV-I 0,0 C 54 % 84 % 0 % 1016,0 hPa 0,0 l/m 6,0 km/h (2 Bft) 0 min 0 min 9,2 km/h (2 Bft)
02.01.2012 22:38 14,5 C 5,3 C 0,0 UV-I 0,0 C 54 % 84 % 0 % 1016,0 hPa 0,0 l/m 6,8 km/h (2 Bft) 0 min 0 min 16,5 km/h (3 Bft)
02.01.2012 22:40 14,5 C 5,3 C 0,0 UV-I 0,0 C 54 % 84 % 0 % 1016,0 hPa 0,0 l/m 8,0 km/h (2 Bft) 0 min 0 min 20,1 km/h (4 Bft)
02.01.2012 22:42 14,3 C 5,5 C 0,0 UV-I 0,0 C 54 % 84 % 0 % 1016,0 hPa 0,0 l/m 7,6 km/h (2 Bft) 0 min 0 min 20,1 km/h (4 Bft)
02.01.2012 22:44 14,3 C 5,4 C 0,0 UV-I 0,0 C 54 % 84 % 0 % 1016,4 hPa 0,0 l/m 8,4 km/h (2 Bft) 0 min 0 min 10,8 km/h (2 Bft)
02.01.2012 22:46 14,5 C 5,5 C 0,0 UV-I 0,0 C 54 % 85 % 0 % 1016,4 hPa 0,0 l/m 8,8 km/h (2 Bft) 0 min 0 min 11,2 km/h (2 Bft)
02.01.2012 22:48 14,3 C 5,5 C 0,0 UV-I 0,0 C 54 % 85 % 0 % 1016,4 hPa 0,0 l/m 8,4 km/h (2 Bft) 0 min 0 min 12,8 km/h (3 Bft)
02.01.2012 22:50 14,3 C 5,4 C 0,0 UV-I 0,0 C 54 % 85 % 0 % 1016,4 hPa 0,0 l/m 8,4 km/h (2 Bft) 0 min 0 min 24,9 km/h (4 Bft)
02.01.2012 22:52 14,3 C 5,3 C 0,0 UV-I 0,0 C 54 % 85 % 0 % 1016,4 hPa 0,0 l/m 7,6 km/h (2 Bft) 0 min 0 min 24,9 km/h (4 Bft)
02.01.2012 22:54 14,3 C 5,4 C 0,0 UV-I 0,0 C 54 % 85 % 0 % 1016,4 hPa 0,0 l/m 8,0 km/h (2 Bft) 0 min 0 min 16,9 km/h (3 Bft)
02.01.2012 22:56 14,3 C 5,4 C 0,0 UV-I 0,0 C 54 % 85 % 0 % 1016,4 hPa 0,0 l/m 8,0 km/h (2 Bft) 0 min 0 min 16,9 km/h (3 Bft)
02.01.2012 22:58 14,3 C 5,3 C 0,0 UV-I 0,0 C 54 % 85 % 0 % 1016,4 hPa 0,0 l/m 8,8 km/h (2 Bft) 0 min 0 min 10,0 km/h (2 Bft)
02.01.2012 23:00 14,4 C 5,3 C 0,0 UV-I 0,0 C 54 % 85 % 0 % 1016,4 hPa 0,0 l/m 8,4 km/h (2 Bft) 0 min 0 min 8,8 km/h (2 Bft)
02.01.2012 23:02 14,4 C 5,3 C 0,0 UV-I 0,0 C 54 % 85 % 0 % 1016,4 hPa 0,0 l/m 8,4 km/h (2 Bft) 0 min 0 min 14,1 km/h (3 Bft)
02.01.2012 23:04 14,4 C 5,3 C 0,0 UV-I 0,0 C 54 % 85 % 0 % 1016,4 hPa 0,0 l/m 8,0 km/h (2 Bft) 0 min 0 min 12,0 km/h (2 Bft)
02.01.2012 23:06 14,4 C 5,3 C 0,0 UV-I 0,0 C 54 % 85 % 0 % 1016,4 hPa 0,0 l/m 8,4 km/h (2 Bft) 0 min 0 min 12,0 km/h (2 Bft)
02.01.2012 23:08 14,4 C 5,3 C 0,0 UV-I 0,0 C 54 % 85 % 0 % 1016,4 hPa 0,0 l/m 7,6 km/h (2 Bft) 0 min 0 min 8,4 km/h (2 Bft)
02.01.2012 23:10 14,4 C 5,3 C 0,0 UV-I 0,0 C 54 % 85 % 0 % 1016,4 hPa 0,0 l/m 8,0 km/h (2 Bft) 0 min 0 min 12,0 km/h (2 Bft)
02.01.2012 23:12 14,4 C 5,3 C 0,0 UV-I 0,0 C 54 % 85 % 0 % 1016,4 hPa 0,0 l/m 8,0 km/h (2 Bft) 0 min 0 min 12,0 km/h (2 Bft)
02.01.2012 23:14 14,4 C 5,3 C 0,0 UV-I 0,0 C 54 % 85 % 0 % 1016,4 hPa 0,0 l/m 8,0 km/h (2 Bft) 0 min 0 min 8,4 km/h (2 Bft)
02.01.2012 23:16 14,4 C 5,3 C 0,0 UV-I 0,0 C 54 % 85 % 0 % 1016,4 hPa 0,0 l/m 7,2 km/h (2 Bft) 0 min 0 min 11,6 km/h (2 Bft)
02.01.2012 23:18 14,4 C 5,2 C 0,0 UV-I 0,0 C 54 % 85 % 0 % 1016,4 hPa 0,0 l/m 6,4 km/h (2 Bft) 0 min 0 min 11,6 km/h (2 Bft)
02.01.2012 23:20 14,4 C 5,3 C 0,0 UV-I 0,0 C 54 % 85 % 0 % 1016,4 hPa 0,0 l/m 6,8 km/h (2 Bft) 0 min 0 min 6,4 km/h (2 Bft)
02.01.2012 23:22 14,4 C 5,3 C 0,0 UV-I 0,0 C 54 % 85 % 0 % 1016,4 hPa 0,0 l/m 6,4 km/h (2 Bft) 0 min 0 min 10,8 km/h (2 Bft)
02.01.2012 23:24 14,4 C 5,3 C 0,0 UV-I 0,0 C 54 % 85 % 0 % 1016,7 hPa 0,0 l/m 6,4 km/h (2 Bft) 0 min 0 min 10,8 km/h (2 Bft)
02.01.2012 23:26 14,4 C 5,3 C 0,0 UV-I 0,0 C 54 % 85 % 0 % 1016,7 hPa 0,0 l/m 6,8 km/h (2 Bft) 0 min 0 min 18,9 km/h (3 Bft)
02.01.2012 23:28 14,4 C 5,2 C 0,0 UV-I 0,0 C 54 % 85 % 0 % 1016,7 hPa 0,0 l/m 6,8 km/h (2 Bft) 0 min 0 min 18,9 km/h (3 Bft)
02.01.2012 23:30 14,4 C 5,2 C 0,0 UV-I 0,0 C 54 % 85 % 0 % 1016,7 hPa 0,0 l/m 5,6 km/h (1 Bft) 0 min 0 min 11,2 km/h (2 Bft)
02.01.2012 23:32 14,4 C 5,2 C 0,0 UV-I 0,0 C 54 % 85 % 0 % 1016,7 hPa 0,0 l/m 4,8 km/h (1 Bft) 0 min 0 min 7,6 km/h (2 Bft)
02.01.2012 23:34 14,4 C 5,3 C 0,0 UV-I 0,0 C 54 % 85 % 0 % 1016,7 hPa 0,0 l/m 4,0 km/h (1 Bft) 0 min 0 min 5,2 km/h (1 Bft)
02.01.2012 23:36 14,4 C 5,2 C 0,0 UV-I 0,0 C 54 % 85 % 0 % 1016,7 hPa 0,0 l/m 3,6 km/h (1 Bft) 0 min 0 min 10,8 km/h (2 Bft)
02.01.2012 23:38 14,4 C 5,2 C 0,0 UV-I 0,0 C 54 % 85 % 0 % 1016,7 hPa 0,0 l/m 4,4 km/h (1 Bft) 0 min 0 min 20,5 km/h (4 Bft)
02.01.2012 23:40 14,4 C 5,2 C 0,0 UV-I 0,0 C 54 % 85 % 0 % 1016,7 hPa 0,0 l/m 4,4 km/h (1 Bft) 0 min 0 min 20,5 km/h (4 Bft)
02.01.2012 23:42 14,4 C 5,2 C 0,0 UV-I 0,0 C 54 % 85 % 0 % 1016,7 hPa 0,0 l/m 5,6 km/h (1 Bft) 0 min 0 min 9,6 km/h (2 Bft)
02.01.2012 23:44 14,4 C 5,2 C 0,0 UV-I 0,0 C 54 % 85 % 0 % 1016,7 hPa 0,0 l/m 6,4 km/h (2 Bft) 0 min 0 min 7,6 km/h (2 Bft)
02.01.2012 23:46 14,2 C 5,2 C 0,0 UV-I 0,0 C 54 % 85 % 0 % 1016,7 hPa 0,0 l/m 7,2 km/h (2 Bft) 0 min 0 min 11,2 km/h (2 Bft)
02.01.2012 23:48 14,2 C 5,2 C 0,0 UV-I 0,0 C 54 % 85 % 0 % 1016,7 hPa 0,0 l/m 6,8 km/h (2 Bft) 0 min 0 min 11,2 km/h (2 Bft)
02.01.2012 23:50 14,4 C 5,1 C 0,0 UV-I 0,0 C 54 % 85 % 0 % 1016,7 hPa 0,0 l/m 5,6 km/h (1 Bft) 0 min 0 min 13,7 km/h (3 Bft)
02.01.2012 23:52 14,4 C 5,1 C 0,0 UV-I 0,0 C 54 % 85 % 0 % 1016,7 hPa 0,0 l/m 5,6 km/h (1 Bft) 0 min 0 min 12,8 km/h (3 Bft)
02.01.2012 23:54 14,2 C 5,1 C 0,0 UV-I 0,0 C 54 % 85 % 0 % 1016,7 hPa 0,0 l/m 5,2 km/h (1 Bft) 0 min 0 min 16,9 km/h (3 Bft)
02.01.2012 23:56 14,2 C 5,1 C 0,0 UV-I 0,0 C 54 % 85 % 0 % 1016,7 hPa 0,0 l/m 5,2 km/h (1 Bft) 0 min 0 min 16,9 km/h (3 Bft)
02.01.2012 23:58 14,2 C 5,1 C 0,0 UV-I 0,0 C 54 % 85 % 0 % 1016,7 hPa 0,0 l/m 5,6 km/h (1 Bft) 0 min 0 min 25,3 km/h (4 Bft)
_ Min-Zeit 23:46 23:50 00:00 00:00 18:28 00:00 00:00 00:04 - 08:58 - - 03:44
Minimum _ 14,2 C 5,1 C 0,0 UV-I 0,0 C 54 % 80 % 0 % 1003,2 hPa - 0,0 km/h (0 Bft) - - 0,0 km/h (0 Bft)
_ Max-Zeit 00:46 00:06 12:44 12:40 01:12 04:58 12:40 23:24 01:16 01:30 00:00 00:46 00:26
Maximum _ 17,0 C 14,5 C 0,2 UV-I 0,8 C 66 % 92 % 23 % 1016,7 hPa 0,7 l/m 17,3 km/h
W (3 Bft)
0 min 2 min 55,8 km/h
SO (7 Bft)
Durchschnitt _ 15,8 C 8,5 C 0,0 UV-I 0,0 C 60 % 87 % 1 % 1009,2 hPa #5,3 l/m 6,4 km/h (2 Bft) #0 min. #3:04 h 11,5 km/h (2 Bft)
© 2012 W. Hausmann